Observation data for McCamey on 02/14/2020      Previous  Date  Next       Current Mesonet Observations  Soil Data  Daily Summary Page  Observations in Plain Language
KMC4 140600Z 07009KT 04/01 A3026 RMK A01 T00400006  RH  079%=      5-min Rain = 0
KMC4 140601Z 07008KT 04/01 A3026 RMK A01 T00400006  RH  079%=      5-min Rain = 0
KMC4 140602Z 07009KT 04/01 A3026 RMK A01 T00400006  RH  079%=      5-min Rain = 0
KMC4 140603Z 07010KT 04/01 A3026 RMK A01 T00400006  RH  079%=      5-min Rain = 0
KMC4 140604Z 07009KT 04/01 A3026 RMK A01 T00400006  RH  079%=      5-min Rain = 0
KMC4 140605Z 07009KT 04/01 A3026 RMK A01 T00400006  RH  079%=      5-min Rain = 0
KMC4 140606Z 07008KT 04/01 A3026 RMK A01 T00400006  RH  079%=      5-min Rain = 0
KMC4 140607Z 07010KT 04/01 A3026 RMK A01 T00390006  RH  079%=      5-min Rain = 0
KMC4 140608Z 08010KT 04/01 A3026 RMK A01 T00390006  RH  079%=      5-min Rain = 0
KMC4 140609Z 08008KT 04/01 A3026 RMK A01 T00390006  RH  079%=      5-min Rain = 0
KMC4 140610Z 08008KT 04/01 A3026 RMK A01 T00390006  RH  079%=      5-min Rain = 0
KMC4 140611Z 08009KT 04/01 A3026 RMK A01 T00380006  RH  079%=      5-min Rain = 0
KMC4 140612Z 07008KT 04/01 A3026 RMK A01 T00380006  RH  079%=      5-min Rain = 0
KMC4 140613Z 07010KT 04/01 A3026 RMK A01 T00380006  RH  079%=      5-min Rain = 0
KMC4 140614Z 07008KT 04/01 A3026 RMK A01 T00380006  RH  080%=      5-min Rain = 0
KMC4 140615Z 07010KT 04/01 A3026 RMK A01 T00380006  RH  080%=      5-min Rain = 0
KMC4 140616Z 07008KT 04/01 A3026 RMK A01 T00380006  RH  080%=      5-min Rain = 0
KMC4 140617Z 07008KT 04/01 A3026 RMK A01 T00380006  RH  079%=      5-min Rain = 0
KMC4 140618Z 07009KT 04/01 A3026 RMK A01 T00380005  RH  080%=      5-min Rain = 0
KMC4 140619Z 07008KT 04/01 A3026 RMK A01 T00370005  RH  080%=      5-min Rain = 0
KMC4 140620Z 07009KT 04/01 A3026 RMK A01 T00370005  RH  080%=      5-min Rain = 0
KMC4 140621Z 07008KT 04/01 A3026 RMK A01 T00370005  RH  080%=      5-min Rain = 0
KMC4 140622Z 07008KT 04/01 A3026 RMK A01 T00370005  RH  080%=      5-min Rain = 0
KMC4 140623Z 07007KT 04/01 A3026 RMK A01 T00370005  RH  080%=      5-min Rain = 0
KMC4 140624Z 07008KT 04/01 A3026 RMK A01 T00370005  RH  080%=      5-min Rain = 0
KMC4 140625Z 07008KT 04/01 A3026 RMK A01 T00360005  RH  080%=      5-min Rain = 0
KMC4 140626Z 07007KT 04/01 A3026 RMK A01 T00360005  RH  080%=      5-min Rain = 0
KMC4 140627Z 08008KT 04/01 A3026 RMK A01 T00360005  RH  080%=      5-min Rain = 0
KMC4 140628Z 08007KT 04/01 A3026 RMK A01 T00350005  RH  081%=      5-min Rain = 0
KMC4 140629Z 08007KT 04/01 A3026 RMK A01 T00350005  RH  081%=      5-min Rain = 0
KMC4 140630Z 08008KT 04/01 A3026 RMK A01 T00350005  RH  081%=      5-min Rain = 0
KMC4 140631Z 08010KT 04/01 A3026 RMK A01 T00360005  RH  080%=      5-min Rain = 0
KMC4 140632Z 09009KT 04/01 A3026 RMK A01 T00370005  RH  080%=      5-min Rain = 0
KMC4 140633Z 08009KT 04/01 A3026 RMK A01 T00380005  RH  079%=      5-min Rain = 0
KMC4 140634Z 09007KT 04/01 A3026 RMK A01 T00380005  RH  079%=      5-min Rain = 0
KMC4 140635Z 09007KT 04/01 A3026 RMK A01 T00380005  RH  079%=      5-min Rain = 0
KMC4 140636Z 09009KT 04/01 A3026 RMK A01 T00380005  RH  079%=      5-min Rain = 0
KMC4 140637Z 09007KT 04/01 A3026 RMK A01 T00380005  RH  079%=      5-min Rain = 0
KMC4 140638Z 09009KT 04/01 A3026 RMK A01 T00390005  RH  078%=      5-min Rain = 0
KMC4 140639Z 09008KT 04/01 A3026 RMK A01 T00390005  RH  078%=      5-min Rain = 0
KMC4 140640Z 09010KT 04/01 A3026 RMK A01 T00390005  RH  078%=      5-min Rain = 0
KMC4 140641Z 08011KT 04/01 A3026 RMK A01 T00410005  RH  078%=      5-min Rain = 0
KMC4 140642Z 08008KT 04/01 A3026 RMK A01 T00410005  RH  077%=      5-min Rain = 0
KMC4 140643Z 08007KT 04/00 A3026 RMK A01 T00410004  RH  077%=      5-min Rain = 0
KMC4 140644Z 07007KT 04/01 A3026 RMK A01 T00410005  RH  077%=      5-min Rain = 0
KMC4 140645Z 07007KT 04/00 A3026 RMK A01 T00390004  RH  078%=      5-min Rain = 0
KMC4 140646Z 08007KT 04/00 A3026 RMK A01 T00370003  RH  078%=      5-min Rain = 0
KMC4 140647Z 07009KT 04/00 A3026 RMK A01 T00370004  RH  079%=      5-min Rain = 0
KMC4 140648Z 07007KT 04/00 A3026 RMK A01 T00360004  RH  079%=      5-min Rain = 0
KMC4 140649Z 08008KT 04/00 A3026 RMK A01 T00360004  RH  079%=      5-min Rain = 0
KMC4 140650Z 07007KT 04/00 A3026 RMK A01 T00360004  RH  079%=      5-min Rain = 0
KMC4 140651Z 07008KT 04/00 A3026 RMK A01 T00360003  RH  079%=      5-min Rain = 0
KMC4 140652Z 07007KT 04/00 A3026 RMK A01 T00350004  RH  080%=      5-min Rain = 0
KMC4 140653Z 07007KT 03/00 A3026 RMK A01 T00340003  RH  080%=      5-min Rain = 0
KMC4 140654Z 08007KT 03/00 A3026 RMK A01 T00340003  RH  081%=      5-min Rain = 0
KMC4 140655Z 07008KT 03/00 A3026 RMK A01 T00330003  RH  081%=      5-min Rain = 0
KMC4 140656Z 09010KT 03/00 A3026 RMK A01 T00330004  RH  081%=      5-min Rain = 0
KMC4 140657Z 08008KT 03/00 A3026 RMK A01 T00340004  RH  081%=      5-min Rain = 0
KMC4 140658Z 08007KT 03/00 A3026 RMK A01 T00340003  RH  080%=      5-min Rain = 0
KMC4 140659Z 08008KT 04/00 A3026 RMK A01 T00350003  RH  080%=      5-min Rain = 0
KMC4 140700Z 08009KT 04/00 A3026 RMK A01 T00350003  RH  080%=      5-min Rain = 0
KMC4 140701Z 08009KT 04/00 A3026 RMK A01 T00350004  RH  080%=      5-min Rain = 0
KMC4 140702Z 07008KT 04/00 A3026 RMK A01 T00350003  RH  080%=      5-min Rain = 0
KMC4 140703Z 06008KT 04/00 A3026 RMK A01 T00350003  RH  080%=      5-min Rain = 0
KMC4 140704Z 07008KT 03/00 A3026 RMK A01 T00340003  RH  080%=      5-min Rain = 0
KMC4 140705Z 07008KT 03/00 A3026 RMK A01 T00330002  RH  080%=      5-min Rain = 0
KMC4 140706Z 07007KT 03/00 A3027 RMK A01 T00320002  RH  081%=      5-min Rain = 0
KMC4 140707Z 07007KT 03/00 A3027 RMK A01 T00310002  RH  081%=      5-min Rain = 0
KMC4 140708Z 06009KT 03/00 A3027 RMK A01 T00310002  RH  082%=      5-min Rain = 0
KMC4 140709Z 06009KT 03/00 A3027 RMK A01 T00310002  RH  082%=      5-min Rain = 0
KMC4 140710Z 06010KT 03/00 A3027 RMK A01 T00300002  RH  082%=      5-min Rain = 0
KMC4 140711Z 06010KT 03/00 A3027 RMK A01 T00300002  RH  082%=      5-min Rain = 0
KMC4 140712Z 07008KT 03/00 A3027 RMK A01 T00300002  RH  082%=      5-min Rain = 0
KMC4 140713Z 07010KT 03/00 A3027 RMK A01 T00290002  RH  082%=      5-min Rain = 0
KMC4 140714Z 06010KT 03/00 A3027 RMK A01 T00290002  RH  083%=      5-min Rain = 0
KMC4 140715Z 07010KT 03/00 A3027 RMK A01 T00290002  RH  083%=      5-min Rain = 0
KMC4 140716Z 08009KT 03/00 A3027 RMK A01 T00280002  RH  083%=      5-min Rain = 0
KMC4 140717Z 08009KT 03/00 A3027 RMK A01 T00280002  RH  083%=      5-min Rain = 0
KMC4 140718Z 08010KT 03/00 A3027 RMK A01 T00270002  RH  083%=      5-min Rain = 0
KMC4 140719Z 07010KT 03/00 A3027 RMK A01 T00270002  RH  083%=      5-min Rain = 0
KMC4 140720Z 08009KT 03/00 A3027 RMK A01 T00270002  RH  084%=      5-min Rain = 0
KMC4 140721Z 08008KT 03/00 A3027 RMK A01 T00270002  RH  084%=      5-min Rain = 0
KMC4 140722Z 08009KT 03/00 A3027 RMK A01 T00270002  RH  084%=      5-min Rain = 0
KMC4 140723Z 08010KT 03/00 A3027 RMK A01 T00270002  RH  084%=      5-min Rain = 0
KMC4 140724Z 07010KT 03/00 A3027 RMK A01 T00270002  RH  084%=      5-min Rain = 0
KMC4 140725Z 07011KT 03/00 A3027 RMK A01 T00260002  RH  084%=      5-min Rain = 0
KMC4 140726Z 07010KT 03/00 A3027 RMK A01 T00260001  RH  084%=      5-min Rain = 0
KMC4 140727Z 07010KT 03/00 A3027 RMK A01 T00250001  RH  084%=      5-min Rain = 0
KMC4 140728Z 07010KT 03/00 A3027 RMK A01 T00250001  RH  084%=      5-min Rain = 0
KMC4 140729Z 07010KT 03/00 A3027 RMK A01 T00250001  RH  085%=      5-min Rain = 0
KMC4 140730Z 06011KT 03/00 A3027 RMK A01 T00250001  RH  085%=      5-min Rain = 0
KMC4 140731Z 08010KT 02/00 A3027 RMK A01 T00240001  RH  085%=      5-min Rain = 0
KMC4 140732Z 07009KT 02/00 A3027 RMK A01 T00240001  RH  085%=      5-min Rain = 0
KMC4 140733Z 07010KT 02/00 A3027 RMK A01 T00240001  RH  085%=      5-min Rain = 0
KMC4 140734Z 08009KT 02/00 A3027 RMK A01 T00240001  RH  085%=      5-min Rain = 0
KMC4 140735Z 08010KT 02/00 A3027 RMK A01 T00230001  RH  085%=      5-min Rain = 0
KMC4 140736Z 08010KT 02/00 A3027 RMK A01 T00230001  RH  085%=      5-min Rain = 0
KMC4 140737Z 07009KT 02/00 A3027 RMK A01 T00230001  RH  086%=      5-min Rain = 0
KMC4 140738Z 07009KT 02/00 A3027 RMK A01 T00230002  RH  086%=      5-min Rain = 0
KMC4 140739Z 07009KT 02/00 A3027 RMK A01 T00230001  RH  086%=      5-min Rain = 0
KMC4 140740Z 07010KT 02/00 A3027 RMK A01 T00230001  RH  086%=      5-min Rain = 0
KMC4 140741Z 08010KT 02/00 A3027 RMK A01 T00230001  RH  086%=      5-min Rain = 0
KMC4 140742Z 07011KT 02/00 A3027 RMK A01 T00220001  RH  086%=      5-min Rain = 0
KMC4 140743Z 08011KT 02/00 A3027 RMK A01 T00220001  RH  086%=      5-min Rain = 0
KMC4 140744Z 08010KT 02/00 A3027 RMK A01 T00220001  RH  086%=      5-min Rain = 0
KMC4 140745Z 08010KT 02/00 A3027 RMK A01 T00220000  RH  086%=      5-min Rain = 0
KMC4 140746Z 08009KT 02/00 A3027 RMK A01 T00220000  RH  086%=      5-min Rain = 0
KMC4 140747Z 08011KT 02/00 A3027 RMK A01 T00210000  RH  086%=      5-min Rain = 0
KMC4 140748Z 08011KT 02/00 A3027 RMK A01 T00210000  RH  086%=      5-min Rain = 0
KMC4 140749Z 08009KT 02/00 A3027 RMK A01 T00210001  RH  086%=      5-min Rain = 0
KMC4 140750Z 07010KT 02/00 A3027 RMK A01 T00210001  RH  086%=      5-min Rain = 0
KMC4 140751Z 08011KT 02/00 A3027 RMK A01 T00210000  RH  086%=      5-min Rain = 0
KMC4 140752Z 08010KT 02/00 A3027 RMK A01 T00210000  RH  086%=      5-min Rain = 0
KMC4 140753Z 08010KT 02/00 A3027 RMK A01 T00210000  RH  086%=      5-min Rain = 0
KMC4 140754Z 08011KT 02/00 A3027 RMK A01 T002000-0  RH  086%=      5-min Rain = 0
KMC4 140755Z 08012KT 02/00 A3027 RMK A01 T002000-0  RH  086%=      5-min Rain = 0
KMC4 140756Z 08011KT 02/00 A3027 RMK A01 T00200000  RH  086%=      5-min Rain = 0
KMC4 140757Z 08011KT 02/M00 A3027 RMK A01 T00201001  RH  087%=      5-min Rain = 0
KMC4 140758Z 08008KT 02/00 A3027 RMK A01 T002000-0  RH  087%=      5-min Rain = 0
KMC4 140759Z 08010KT 02/00 A3027 RMK A01 T002000-0  RH  087%=      5-min Rain = 0
KMC4 140800Z 08010KT 02/00 A3027 RMK A01 T001900-0  RH  087%=      5-min Rain = 0
KMC4 140801Z 08010KT 02/M00 A3027 RMK A01 T00191001  RH  087%=      5-min Rain = 0
KMC4 140802Z 08010KT 02/00 A3027 RMK A01 T001900-0  RH  087%=      5-min Rain = 0
KMC4 140803Z 08011KT 02/00 A3027 RMK A01 T001900-0  RH  087%=      5-min Rain = 0
KMC4 140804Z 08011KT 02/M00 A3027 RMK A01 T00191001  RH  087%=      5-min Rain = 0
KMC4 140805Z 08011KT 02/M00 A3027 RMK A01 T00191001  RH  087%=      5-min Rain = 0
KMC4 140806Z 08010KT 02/M00 A3027 RMK A01 T00191001  RH  087%=      5-min Rain = 0
KMC4 140807Z 08010KT 02/M00 A3027 RMK A01 T00181001  RH  087%=      5-min Rain = 0
KMC4 140808Z 08009KT 02/M00 A3027 RMK A01 T00181001  RH  087%=      5-min Rain = 0
KMC4 140809Z 08011KT 02/M00 A3027 RMK A01 T00181001  RH  087%=      5-min Rain = 0
KMC4 140810Z 08010KT 02/M00 A3027 RMK A01 T00181001  RH  087%=      5-min Rain = 0
KMC4 140811Z 08010KT 02/M00 A3027 RMK A01 T00181001  RH  087%=      5-min Rain = 0
KMC4 140812Z 08010KT 02/M00 A3027 RMK A01 T00171001  RH  087%=      5-min Rain = 0
KMC4 140813Z 08009KT 02/M00 A3027 RMK A01 T00171001  RH  087%=      5-min Rain = 0
KMC4 140814Z 08009KT 02/M00 A3027 RMK A01 T00171002  RH  088%=      5-min Rain = 0
KMC4 140815Z 07010KT 02/M00 A3027 RMK A01 T00171001  RH  088%=      5-min Rain = 0
KMC4 140816Z 08010KT 02/M00 A3027 RMK A01 T00171002  RH  088%=      5-min Rain = 0
KMC4 140817Z 08009KT 02/M00 A3027 RMK A01 T00171002  RH  088%=      5-min Rain = 0
KMC4 140818Z 07011KT 02/M00 A3027 RMK A01 T00171001  RH  088%=      5-min Rain = 0
KMC4 140819Z 08010KT 02/M00 A3027 RMK A01 T00171001  RH  088%=      5-min Rain = 0
KMC4 140820Z 07010KT 02/M00 A3027 RMK A01 T00171002  RH  088%=      5-min Rain = 0
KMC4 140821Z 08010KT 02/M00 A3027 RMK A01 T00171002  RH  088%=      5-min Rain = 0
KMC4 140822Z 08010KT 02/M00 A3027 RMK A01 T00171002  RH  088%=      5-min Rain = 0
KMC4 140823Z 08010KT 02/M00 A3027 RMK A01 T00171002  RH  088%=      5-min Rain = 0
KMC4 140824Z 08010KT 02/M00 A3027 RMK A01 T00161002  RH  088%=      5-min Rain = 0
KMC4 140825Z 07009KT 02/M00 A3027 RMK A01 T00161002  RH  088%=      5-min Rain = 0
KMC4 140826Z 08009KT 02/M00 A3027 RMK A01 T00161002  RH  088%=      5-min Rain = 0
KMC4 140827Z 07009KT 02/M00 A3027 RMK A01 T00161002  RH  088%=      5-min Rain = 0
KMC4 140828Z 07009KT 02/M00 A3027 RMK A01 T00161002  RH  088%=      5-min Rain = 0
KMC4 140829Z 08008KT 02/M00 A3027 RMK A01 T00161002  RH  088%=      5-min Rain = 0
KMC4 140830Z 08009KT 02/M00 A3027 RMK A01 T00151003  RH  088%=      5-min Rain = 0
KMC4 140831Z 08007KT 02/M00 A3027 RMK A01 T00151002  RH  088%=      5-min Rain = 0
KMC4 140832Z 08008KT 02/M00 A3027 RMK A01 T00151002  RH  088%=      5-min Rain = 0
KMC4 140833Z 08009KT 02/M00 A3027 RMK A01 T00151003  RH  088%=      5-min Rain = 0
KMC4 140834Z 08009KT 02/M00 A3027 RMK A01 T00151003  RH  088%=      5-min Rain = 0
KMC4 140835Z 08010KT 02/M00 A3027 RMK A01 T00151003  RH  088%=      5-min Rain = 0
KMC4 140836Z 08007KT 02/M00 A3027 RMK A01 T00151003  RH  088%=      5-min Rain = 0
KMC4 140837Z 07009KT 01/M00 A3027 RMK A01 T00141003  RH  088%=      5-min Rain = 0
KMC4 140838Z 07008KT 01/M00 A3027 RMK A01 T00141003  RH  088%=      5-min Rain = 0
KMC4 140839Z 07008KT 01/M00 A3027 RMK A01 T00141003  RH  088%=      5-min Rain = 0
KMC4 140840Z 08009KT 01/M00 A3027 RMK A01 T00131003  RH  089%=      5-min Rain = 0
KMC4 140841Z 08008KT 01/M00 A3027 RMK A01 T00131003  RH  089%=      5-min Rain = 0
KMC4 140842Z 07009KT 01/M00 A3027 RMK A01 T00131004  RH  089%=      5-min Rain = 0
KMC4 140843Z 07009KT 01/M00 A3027 RMK A01 T00131003  RH  089%=      5-min Rain = 0
KMC4 140844Z 07009KT 01/M00 A3027 RMK A01 T00131004  RH  089%=      5-min Rain = 0
KMC4 140845Z 08009KT 01/M00 A3027 RMK A01 T00131004  RH  089%=      5-min Rain = 0
KMC4 140846Z 08008KT 01/M00 A3027 RMK A01 T00121004  RH  089%=      5-min Rain = 0
KMC4 140847Z 07008KT 01/M00 A3027 RMK A01 T00131004  RH  089%=      5-min Rain = 0
KMC4 140848Z 08008KT 01/M00 A3027 RMK A01 T00121004  RH  089%=      5-min Rain = 0
KMC4 140849Z 08008KT 01/M00 A3027 RMK A01 T00121004  RH  089%=      5-min Rain = 0
KMC4 140850Z 08008KT 01/M00 A3027 RMK A01 T00121004  RH  089%=      5-min Rain = 0
KMC4 140851Z 08008KT 01/M00 A3027 RMK A01 T00121004  RH  089%=      5-min Rain = 0
KMC4 140852Z 08009KT 01/M00 A3027 RMK A01 T00121004  RH  089%=      5-min Rain = 0
KMC4 140853Z 07008KT 01/M00 A3027 RMK A01 T00121004  RH  089%=      5-min Rain = 0
KMC4 140854Z 08008KT 01/M00 A3027 RMK A01 T00121004  RH  089%=      5-min Rain = 0
KMC4 140855Z 08008KT 01/M00 A3027 RMK A01 T00111004  RH  090%=      5-min Rain = 0
KMC4 140856Z 08008KT 01/M00 A3027 RMK A01 T00121004  RH  090%=      5-min Rain = 0
KMC4 140857Z 07008KT 01/M00 A3027 RMK A01 T00111004  RH  090%=      5-min Rain = 0
KMC4 140858Z 07009KT 01/M00 A3027 RMK A01 T00111004  RH  090%=      5-min Rain = 0
KMC4 140859Z 08007KT 01/M00 A3027 RMK A01 T00111004  RH  090%=      5-min Rain = 0
KMC4 140900Z 07008KT 01/M00 A3027 RMK A01 T00111004  RH  090%=      5-min Rain = 0
KMC4 140901Z 08008KT 01/M00 A3027 RMK A01 T00101004  RH  090%=      5-min Rain = 0
KMC4 140902Z 08008KT 01/M00 A3027 RMK A01 T00101004  RH  090%=      5-min Rain = 0
KMC4 140903Z 08009KT 01/M00 A3027 RMK A01 T00101004  RH  090%=      5-min Rain = 0
KMC4 140904Z 08008KT 01/M00 A3027 RMK A01 T00101004  RH  090%=      5-min Rain = 0
KMC4 140905Z 07009KT 01/M00 A3027 RMK A01 T00101004  RH  090%=      5-min Rain = 0
KMC4 140906Z 08008KT 01/M00 A3027 RMK A01 T00101004  RH  090%=      5-min Rain = 0
KMC4 140907Z 07008KT 01/M00 A3027 RMK A01 T00101004  RH  090%=      5-min Rain = 0
KMC4 140908Z 08008KT 01/M00 A3027 RMK A01 T00101004  RH  090%=      5-min Rain = 0
KMC4 140909Z 08007KT 01/M00 A3027 RMK A01 T00101004  RH  091%=      5-min Rain = 0
KMC4 140910Z 08008KT 01/M00 A3027 RMK A01 T00091004  RH  091%=      5-min Rain = 0
KMC4 140911Z 08008KT 01/M00 A3027 RMK A01 T00091004  RH  091%=      5-min Rain = 0
KMC4 140912Z 09008KT 01/M00 A3027 RMK A01 T00091004  RH  091%=      5-min Rain = 0
KMC4 140913Z 08008KT 01/M00 A3027 RMK A01 T00091004  RH  091%=      5-min Rain = 0
KMC4 140914Z 08009KT 01/M00 A3027 RMK A01 T00091004  RH  091%=      5-min Rain = 0
KMC4 140915Z 08009KT 01/M00 A3027 RMK A01 T00091004  RH  091%=      5-min Rain = 0
KMC4 140916Z 08010KT 01/M00 A3027 RMK A01 T00091004  RH  091%=      5-min Rain = 0
KMC4 140917Z 08008KT 01/M00 A3027 RMK A01 T00091004  RH  091%=      5-min Rain = 0
KMC4 140918Z 08008KT 01/M00 A3027 RMK A01 T00091004  RH  091%=      5-min Rain = 0
KMC4 140919Z 08009KT 01/M00 A3027 RMK A01 T00091004  RH  091%=      5-min Rain = 0
KMC4 140920Z 08008KT 01/M01 A3027 RMK A01 T00091005  RH  091%=      5-min Rain = 0
KMC4 140921Z 08007KT 01/M01 A3027 RMK A01 T00091005  RH  091%=      5-min Rain = 0
KMC4 140922Z 08008KT 01/M01 A3027 RMK A01 T00091005  RH  091%=      5-min Rain = 0
KMC4 140923Z 08008KT 01/M01 A3027 RMK A01 T00091005  RH  091%=      5-min Rain = 0
KMC4 140924Z 08008KT 01/M00 A3027 RMK A01 T00091004  RH  091%=      5-min Rain = 0
KMC4 140925Z 08007KT 01/M01 A3027 RMK A01 T00091005  RH  091%=      5-min Rain = 0
KMC4 140926Z 07008KT 01/M00 A3027 RMK A01 T00091004  RH  091%=      5-min Rain = 0
KMC4 140927Z 08008KT 01/M01 A3027 RMK A01 T00091005  RH  091%=      5-min Rain = 0
KMC4 140928Z 07008KT 01/M01 A3027 RMK A01 T00091005  RH  091%=      5-min Rain = 0
KMC4 140929Z 08007KT 01/M01 A3027 RMK A01 T00091005  RH  091%=      5-min Rain = 0
KMC4 140930Z 08008KT 01/M01 A3027 RMK A01 T00091005  RH  091%=      5-min Rain = 0
KMC4 140931Z 08008KT 01/M01 A3027 RMK A01 T00091005  RH  091%=      5-min Rain = 0
KMC4 140932Z 08007KT 01/M01 A3027 RMK A01 T00091005  RH  091%=      5-min Rain = 0
KMC4 140933Z 08006KT 01/M01 A3027 RMK A01 T00081005  RH  091%=      5-min Rain = 0
KMC4 140934Z 08008KT 01/M01 A3027 RMK A01 T00081005  RH  091%=      5-min Rain = 0
KMC4 140935Z 08008KT 01/M01 A3027 RMK A01 T00081005  RH  091%=      5-min Rain = 0
KMC4 140936Z 09008KT 01/M01 A3027 RMK A01 T00081005  RH  091%=      5-min Rain = 0
KMC4 140937Z 08008KT 01/M01 A3028 RMK A01 T00071005  RH  091%=      5-min Rain = 0
KMC4 140938Z 08006KT 01/M01 A3028 RMK A01 T00071005  RH  091%=      5-min Rain = 0
KMC4 140939Z 08007KT 01/M01 A3028 RMK A01 T00071006  RH  091%=      5-min Rain = 0
KMC4 140940Z 09007KT 01/M01 A3028 RMK A01 T00071006  RH  091%=      5-min Rain = 0
KMC4 140941Z 08007KT 01/M01 A3028 RMK A01 T00071006  RH  092%=      5-min Rain = 0
KMC4 140942Z 08007KT 01/M01 A3028 RMK A01 T00061006  RH  092%=      5-min Rain = 0
KMC4 140943Z 08007KT 01/M01 A3028 RMK A01 T00061006  RH  092%=      5-min Rain = 0
KMC4 140944Z 08007KT 01/M01 A3028 RMK A01 T00061006  RH  092%=      5-min Rain = 0
KMC4 140945Z 09008KT 01/M01 A3028 RMK A01 T00061005  RH  092%=      5-min Rain = 0
KMC4 140946Z 08007KT 01/M01 A3028 RMK A01 T00061005  RH  092%=      5-min Rain = 0
KMC4 140947Z 08007KT 01/M01 A3027 RMK A01 T00061005  RH  092%=      5-min Rain = 0
KMC4 140948Z 08007KT 01/M01 A3027 RMK A01 T00061006  RH  092%=      5-min Rain = 0
KMC4 140949Z 08008KT 01/M01 A3027 RMK A01 T00061005  RH  092%=      5-min Rain = 0
KMC4 140950Z 08009KT 01/M01 A3027 RMK A01 T00061005  RH  092%=      5-min Rain = 0
KMC4 140951Z 09007KT 01/M01 A3027 RMK A01 T00061006  RH  092%=      5-min Rain = 0
KMC4 140952Z 08007KT 01/M01 A3027 RMK A01 T00061006  RH  092%=      5-min Rain = 0
KMC4 140953Z 09007KT 01/M01 A3027 RMK A01 T00061006  RH  092%=      5-min Rain = 0
KMC4 140954Z 09006KT 01/M01 A3027 RMK A01 T00061006  RH  092%=      5-min Rain = 0
KMC4 140955Z 08007KT 01/M01 A3027 RMK A01 T00061006  RH  092%=      5-min Rain = 0
KMC4 140956Z 08007KT 01/M01 A3027 RMK A01 T00061006  RH  092%=      5-min Rain = 0
KMC4 140957Z 08006KT 01/M01 A3027 RMK A01 T00051006  RH  092%=      5-min Rain = 0
KMC4 140958Z 08006KT 01/M01 A3027 RMK A01 T00051006  RH  092%=      5-min Rain = 0
KMC4 140959Z 08007KT 01/M01 A3027 RMK A01 T00051007  RH  092%=      5-min Rain = 0
KMC4 141000Z 08007KT 01/M01 A3027 RMK A01 T00051007  RH  092%=      5-min Rain = 0
KMC4 141001Z 09007KT 01/M01 A3027 RMK A01 T00051007  RH  092%=      5-min Rain = 0
KMC4 141002Z 08006KT 00/M01 A3027 RMK A01 T00041007  RH  092%=      5-min Rain = 0
KMC4 141003Z 09006KT 00/M01 A3027 RMK A01 T00041007  RH  092%=      5-min Rain = 0
KMC4 141004Z 08006KT 00/M01 A3027 RMK A01 T00041007  RH  092%=      5-min Rain = 0
KMC4 141005Z 08006KT 00/M01 A3027 RMK A01 T00041007  RH  093%=      5-min Rain = 0
KMC4 141006Z 09006KT 00/M01 A3027 RMK A01 T00041007  RH  093%=      5-min Rain = 0
KMC4 141007Z 09007KT 00/M01 A3027 RMK A01 T00041007  RH  093%=      5-min Rain = 0
KMC4 141008Z 08006KT 00/M01 A3027 RMK A01 T00041007  RH  093%=      5-min Rain = 0
KMC4 141009Z 09006KT 00/M01 A3027 RMK A01 T00041007  RH  093%=      5-min Rain = 0
KMC4 141010Z 09007KT 00/M01 A3027 RMK A01 T00041007  RH  093%=      5-min Rain = 0
KMC4 141011Z 09006KT 00/M01 A3027 RMK A01 T00031007  RH  093%=      5-min Rain = 0
KMC4 141012Z 10005KT 00/M01 A3027 RMK A01 T00031007  RH  093%=      5-min Rain = 0
KMC4 141013Z 08005KT 00/M01 A3027 RMK A01 T00031007  RH  093%=      5-min Rain = 0
KMC4 141014Z 08006KT 00/M01 A3027 RMK A01 T00031007  RH  093%=      5-min Rain = 0
KMC4 141015Z 09005KT 00/M01 A3027 RMK A01 T00031008  RH  093%=      5-min Rain = 0
KMC4 141016Z 08005KT 00/M01 A3027 RMK A01 T00021008  RH  093%=      5-min Rain = 0
KMC4 141017Z 09006KT 00/M01 A3027 RMK A01 T00021007  RH  093%=      5-min Rain = 0
KMC4 141018Z 08005KT 00/M01 A3027 RMK A01 T00021007  RH  093%=      5-min Rain = 0
KMC4 141019Z 08006KT 00/M01 A3027 RMK A01 T00031007  RH  093%=      5-min Rain = 0
KMC4 141020Z 09005KT 00/M01 A3027 RMK A01 T00021007  RH  093%=      5-min Rain = 0
KMC4 141021Z 09005KT 00/M01 A3027 RMK A01 T00021007  RH  093%=      5-min Rain = 0
KMC4 141022Z 09006KT 00/M01 A3027 RMK A01 T00021007  RH  093%=      5-min Rain = 0
KMC4 141023Z 09006KT 00/M01 A3027 RMK A01 T00021007  RH  093%=      5-min Rain = 0
KMC4 141024Z 09006KT 00/M01 A3027 RMK A01 T00021007  RH  093%=      5-min Rain = 0
KMC4 141025Z 08005KT 00/M01 A3027 RMK A01 T00021007  RH  093%=      5-min Rain = 0
KMC4 141026Z 08005KT 00/M01 A3027 RMK A01 T00021007  RH  093%=      5-min Rain = 0
KMC4 141027Z 08006KT 00/M01 A3027 RMK A01 T00021008  RH  093%=      5-min Rain = 0
KMC4 141028Z 08006KT 00/M01 A3027 RMK A01 T00021008  RH  093%=      5-min Rain = 0
KMC4 141029Z 08005KT 00/M01 A3027 RMK A01 T00021008  RH  093%=      5-min Rain = 0
KMC4 141030Z 08007KT 00/M01 A3027 RMK A01 T00021008  RH  093%=      5-min Rain = 0
KMC4 141031Z 08006KT 00/M01 A3027 RMK A01 T00011008  RH  093%=      5-min Rain = 0
KMC4 141032Z 08007KT 00/M01 A3027 RMK A01 T00021008  RH  093%=      5-min Rain = 0
KMC4 141033Z 08007KT 00/M01 A3027 RMK A01 T00011008  RH  093%=      5-min Rain = 0
KMC4 141034Z 08006KT 00/M01 A3027 RMK A01 T00011008  RH  094%=      5-min Rain = 0
KMC4 141035Z 08007KT 00/M01 A3027 RMK A01 T00021008  RH  094%=      5-min Rain = 0
KMC4 141036Z 08006KT 00/M01 A3027 RMK A01 T00011008  RH  094%=      5-min Rain = 0
KMC4 141037Z 09005KT 00/M01 A3027 RMK A01 T00011008  RH  094%=      5-min Rain = 0
KMC4 141038Z 09006KT 00/M01 A3027 RMK A01 T00011008  RH  093%=      5-min Rain = 0
KMC4 141039Z 08006KT 00/M01 A3027 RMK A01 T00011008  RH  094%=      5-min Rain = 0
KMC4 141040Z 08005KT 00/M01 A3027 RMK A01 T00011008  RH  094%=      5-min Rain = 0
KMC4 141041Z 08006KT 00/M01 A3027 RMK A01 T00011008  RH  093%=      5-min Rain = 0
KMC4 141042Z 08006KT 00/M01 A3027 RMK A01 T00011008  RH  093%=      5-min Rain = 0
KMC4 141043Z 08006KT 00/M01 A3027 RMK A01 T00011008  RH  094%=      5-min Rain = 0
KMC4 141044Z 08005KT 00/M01 A3027 RMK A01 T00011008  RH  094%=      5-min Rain = 0
KMC4 141045Z 08006KT 00/M01 A3027 RMK A01 T00011008  RH  094%=      5-min Rain = 0
KMC4 141046Z 08005KT 00/M01 A3027 RMK A01 T00011008  RH  094%=      5-min Rain = 0
KMC4 141047Z 08006KT 00/M01 A3027 RMK A01 T00011008  RH  094%=      5-min Rain = 0
KMC4 141048Z 08005KT 00/M01 A3027 RMK A01 T00011008  RH  094%=      5-min Rain = 0
KMC4 141049Z 08005KT 00/M01 A3027 RMK A01 T00011008  RH  094%=      5-min Rain = 0
KMC4 141050Z 08007KT 00/M01 A3027 RMK A01 T00011008  RH  094%=      5-min Rain = 0
KMC4 141051Z 08007KT 00/M01 A3027 RMK A01 T00011008  RH  094%=      5-min Rain = 0
KMC4 141052Z 09007KT 00/M01 A3027 RMK A01 T00011008  RH  094%=      5-min Rain = 0
KMC4 141053Z 09008KT 00/M01 A3027 RMK A01 T00011008  RH  094%=      5-min Rain = 0
KMC4 141054Z 09008KT 00/M01 A3027 RMK A01 T00011008  RH  094%=      5-min Rain = 0
KMC4 141055Z 08007KT 00/M01 A3027 RMK A01 T00011008  RH  094%=      5-min Rain = 0
KMC4 141056Z 09008KT 00/01 A3027 RMK A01 T000000-9  RH  094%=      5-min Rain = 0
KMC4 141057Z 09007KT 00/01 A3027 RMK A01 T000000-9  RH  094%=      5-min Rain = 0
KMC4 141058Z 09007KT 00/M01 A3027 RMK A01 T00011008  RH  094%=      5-min Rain = 0
KMC4 141059Z 09006KT 00/M01 A3027 RMK A01 T00011008  RH  094%=      5-min Rain = 0
KMC4 141100Z 09007KT 00/01 A3027 RMK A01 T000000-9  RH  094%=      5-min Rain = 0
KMC4 141101Z 08007KT 00/01 A3027 RMK A01 T000000-9  RH  094%=      5-min Rain = 0
KMC4 141102Z 08006KT 00/01 A3027 RMK A01 T000000-9  RH  094%=      5-min Rain = 0
KMC4 141103Z 09007KT 00/01 A3027 RMK A01 T00-000-9  RH  094%=      5-min Rain = 0
KMC4 141104Z 08007KT 00/01 A3027 RMK A01 T00-000-9  RH  094%=      5-min Rain = 0
KMC4 141105Z 08008KT 00/01 A3027 RMK A01 T000000-9  RH  094%=      5-min Rain = 0
KMC4 141106Z 08007KT 00/01 A3028 RMK A01 T000000-9  RH  094%=      5-min Rain = 0
KMC4 141107Z 08007KT 00/01 A3028 RMK A01 T000000-9  RH  094%=      5-min Rain = 0
KMC4 141108Z 08007KT 00/01 A3028 RMK A01 T000000-9  RH  094%=      5-min Rain = 0
KMC4 141109Z 08007KT 00/01 A3028 RMK A01 T000000-9  RH  094%=      5-min Rain = 0
KMC4 141110Z 08006KT 00/01 A3028 RMK A01 T00-000-9  RH  094%=      5-min Rain = 0
KMC4 141111Z 08008KT 00/01 A3028 RMK A01 T00-000-9  RH  094%=      5-min Rain = 0
KMC4 141112Z 09008KT 00/01 A3028 RMK A01 T00-000-9  RH  094%=      5-min Rain = 0
KMC4 141113Z 08007KT 00/01 A3028 RMK A01 T00-000-9  RH  094%=      5-min Rain = 0
KMC4 141114Z 09006KT 00/01 A3028 RMK A01 T00-000-9  RH  094%=      5-min Rain = 0
KMC4 141115Z 09007KT M00/M01 A3028 RMK A01 T10011009  RH  094%=      5-min Rain = 0
KMC4 141116Z 08007KT M00/M01 A3028 RMK A01 T10011010  RH  094%=      5-min Rain = 0
KMC4 141117Z 08008KT M00/M01 A3028 RMK A01 T10011009  RH  094%=      5-min Rain = 0
KMC4 141118Z 08008KT M00/M01 A3028 RMK A01 T10011009  RH  094%=      5-min Rain = 0
KMC4 141119Z 09007KT M00/M01 A3028 RMK A01 T10011009  RH  094%=      5-min Rain = 0
KMC4 141120Z 08006KT M00/M01 A3028 RMK A01 T10011009  RH  094%=      5-min Rain = 0
KMC4 141121Z 08007KT M00/M01 A3028 RMK A01 T10011009  RH  094%=      5-min Rain = 0
KMC4 141122Z 09006KT M00/M01 A3028 RMK A01 T10011009  RH  094%=      5-min Rain = 0
KMC4 141123Z 09006KT M00/M01 A3028 RMK A01 T10011009  RH  094%=      5-min Rain = 0
KMC4 141124Z 08006KT M00/M01 A3028 RMK A01 T10011010  RH  094%=      5-min Rain = 0
KMC4 141125Z 08006KT M00/M01 A3028 RMK A01 T10011009  RH  094%=      5-min Rain = 0
KMC4 141126Z 08007KT M00/M01 A3028 RMK A01 T10011009  RH  094%=      5-min Rain = 0
KMC4 141127Z 09007KT M00/M01 A3028 RMK A01 T10011009  RH  094%=      5-min Rain = 0
KMC4 141128Z 09007KT M00/M01 A3028 RMK A01 T10011009  RH  094%=      5-min Rain = 0
KMC4 141129Z 09007KT M00/M01 A3028 RMK A01 T10011009  RH  094%=      5-min Rain = 0
KMC4 141130Z 09007KT M00/M01 A3028 RMK A01 T10011009  RH  094%=      5-min Rain = 0
KMC4 141131Z 09006KT M00/M01 A3028 RMK A01 T10011010  RH  094%=      5-min Rain = 0
KMC4 141132Z 09007KT M00/M01 A3028 RMK A01 T10011010  RH  094%=      5-min Rain = 0
KMC4 141133Z 09007KT M00/M01 A3028 RMK A01 T10011010  RH  094%=      5-min Rain = 0
KMC4 141134Z 08007KT M00/M01 A3028 RMK A01 T10021010  RH  094%=      5-min Rain = 0
KMC4 141135Z 08007KT M00/M01 A3029 RMK A01 T10021010  RH  094%=      5-min Rain = 0
KMC4 141136Z 08006KT M00/M01 A3029 RMK A01 T10021010  RH  094%=      5-min Rain = 0
KMC4 141137Z 09006KT M00/M01 A3029 RMK A01 T10021010  RH  094%=      5-min Rain = 0
KMC4 141138Z 09006KT M00/M01 A3029 RMK A01 T10021010  RH  094%=      5-min Rain = 0
KMC4 141139Z 09006KT M00/M01 A3029 RMK A01 T10021010  RH  094%=      5-min Rain = 0
KMC4 141140Z 09006KT M00/M01 A3029 RMK A01 T10021010  RH  094%=      5-min Rain = 0
KMC4 141141Z 09006KT M00/M01 A3029 RMK A01 T10031010  RH  094%=      5-min Rain = 0
KMC4 141142Z 09006KT M00/M01 A3029 RMK A01 T10031010  RH  095%=      5-min Rain = 0
KMC4 141143Z 09006KT M00/M01 A3029 RMK A01 T10021010  RH  095%=      5-min Rain = 0
KMC4 141144Z 09005KT M00/M01 A3029 RMK A01 T10031011  RH  095%=      5-min Rain = 0
KMC4 141145Z 09005KT M00/M01 A3029 RMK A01 T10031011  RH  095%=      5-min Rain = 0
KMC4 141146Z 09006KT M00/M01 A3029 RMK A01 T10031011  RH  095%=      5-min Rain = 0
KMC4 141147Z 10006KT M00/M01 A3029 RMK A01 T10031011  RH  095%=      5-min Rain = 0
KMC4 141148Z 10006KT M00/M01 A3029 RMK A01 T10031010  RH  095%=      5-min Rain = 0
KMC4 141149Z 10006KT M00/M01 A3029 RMK A01 T10031010  RH  095%=      5-min Rain = 0
KMC4 141150Z 10006KT M00/M01 A3029 RMK A01 T10031010  RH  095%=      5-min Rain = 0
KMC4 141151Z 10006KT M00/M01 A3029 RMK A01 T10031010  RH  095%=      5-min Rain = 0
KMC4 141152Z 10005KT M00/M01 A3029 RMK A01 T10021010  RH  095%=      5-min Rain = 0
KMC4 141153Z 09005KT M00/M01 A3029 RMK A01 T10031010  RH  095%=      5-min Rain = 0
KMC4 141154Z 10006KT M00/M01 A3029 RMK A01 T10031010  RH  095%=      5-min Rain = 0
KMC4 141155Z 10007KT M00/M01 A3029 RMK A01 T10031010  RH  095%=      5-min Rain = 0
KMC4 141156Z 10008KT M00/M01 A3029 RMK A01 T10021009  RH  095%=      5-min Rain = 0
KMC4 141157Z 10008KT M00/M01 A3029 RMK A01 T10011008  RH  095%=      5-min Rain = 0
KMC4 141158Z 10007KT 00/01 A3029 RMK A01 T000000-7  RH  095%=      5-min Rain = 0
KMC4 141159Z 10007KT 00/01 A3029 RMK A01 T000000-7  RH  095%=      5-min Rain = 0
KMC4 141200Z 09008KT 00/M01 A3029 RMK A01 T00011006  RH  095%=      5-min Rain = 0
KMC4 141201Z 09007KT 00/M01 A3029 RMK A01 T00021006  RH  095%=      5-min Rain = 0
KMC4 141202Z 10008KT 00/M01 A3029 RMK A01 T00011006  RH  095%=      5-min Rain = 0
KMC4 141203Z 09007KT 00/M01 A3029 RMK A01 T00021006  RH  095%=      5-min Rain = 0
KMC4 141204Z 09006KT 00/M01 A3029 RMK A01 T00021006  RH  094%=      5-min Rain = 0
KMC4 141205Z 09007KT 00/M01 A3029 RMK A01 T00021006  RH  094%=      5-min Rain = 0
KMC4 141206Z 09006KT 00/M01 A3029 RMK A01 T00021006  RH  094%=      5-min Rain = 0
KMC4 141207Z 09006KT 00/M01 A3029 RMK A01 T00011007  RH  094%=      5-min Rain = 0
KMC4 141208Z 10007KT 00/M01 A3029 RMK A01 T00011008  RH  094%=      5-min Rain = 0
KMC4 141209Z 10007KT 00/M01 A3029 RMK A01 T00011007  RH  094%=      5-min Rain = 0
KMC4 141210Z 10008KT 00/M01 A3029 RMK A01 T00011007  RH  094%=      5-min Rain = 0
KMC4 141211Z 10007KT 00/M01 A3029 RMK A01 T00021006  RH  094%=      5-min Rain = 0
KMC4 141212Z 11007KT 00/M01 A3029 RMK A01 T00031005  RH  094%=      5-min Rain = 0
KMC4 141213Z 11009KT 00/M01 A3029 RMK A01 T00031005  RH  094%=      5-min Rain = 0
KMC4 141214Z 10008KT 00/M00 A3029 RMK A01 T00041003  RH  095%=      5-min Rain = 0
KMC4 141215Z 10007KT 01/M00 A3029 RMK A01 T00051003  RH  094%=      5-min Rain = 0
KMC4 141216Z 11008KT 01/M00 A3029 RMK A01 T00051003  RH  094%=      5-min Rain = 0
KMC4 141217Z 10006KT 01/M00 A3029 RMK A01 T00061002  RH  094%=      5-min Rain = 0
KMC4 141218Z 10008KT 01/M00 A3029 RMK A01 T00061002  RH  094%=      5-min Rain = 0
KMC4 141219Z 10008KT 01/M00 A3029 RMK A01 T00071002  RH  094%=      5-min Rain = 0
KMC4 141220Z 10008KT 01/M00 A303 RMK A01 T00071002  RH  094%=      5-min Rain = 0
KMC4 141221Z 10009KT 01/M00 A303 RMK A01 T00071002  RH  094%=      5-min Rain = 0
KMC4 141222Z 10008KT 01/M00 A3029 RMK A01 T00071002  RH  094%=      5-min Rain = 0
KMC4 141223Z 09009KT 01/M00 A3029 RMK A01 T00081001  RH  094%=      5-min Rain = 0
KMC4 141224Z 10009KT 01/M00 A3029 RMK A01 T00081001  RH  093%=      5-min Rain = 0
KMC4 141225Z 09007KT 01/M00 A303 RMK A01 T00081001  RH  093%=      5-min Rain = 0
KMC4 141226Z 10008KT 01/M00 A3029 RMK A01 T00091001  RH  093%=      5-min Rain = 0
KMC4 141227Z 10008KT 01/M00 A3029 RMK A01 T00091001  RH  093%=      5-min Rain = 0
KMC4 141228Z 10007KT 01/M00 A3029 RMK A01 T00091001  RH  093%=      5-min Rain = 0
KMC4 141229Z 10008KT 01/M00 A303 RMK A01 T00091001  RH  093%=      5-min Rain = 0
KMC4 141230Z 10009KT 01/M00 A3029 RMK A01 T00091001  RH  093%=      5-min Rain = 0
KMC4 141231Z 10007KT 01/M00 A303 RMK A01 T00091001  RH  093%=      5-min Rain = 0
KMC4 141232Z 10008KT 01/00 A3029 RMK A01 T001000-0  RH  093%=      5-min Rain = 0
KMC4 141233Z 10008KT 01/00 A303 RMK A01 T001000-0  RH  093%=      5-min Rain = 0
KMC4 141234Z 10008KT 01/00 A303 RMK A01 T00100000  RH  093%=      5-min Rain = 0
KMC4 141235Z 10008KT 01/00 A303 RMK A01 T00100000  RH  093%=      5-min Rain = 0
KMC4 141236Z 10008KT 01/00 A303 RMK A01 T00100000  RH  093%=      5-min Rain = 0
KMC4 141237Z 11008KT 01/00 A303 RMK A01 T00110000  RH  093%=      5-min Rain = 0
KMC4 141238Z 11009KT 01/00 A303 RMK A01 T00110000  RH  093%=      5-min Rain = 0
KMC4 141239Z 11007KT 01/00 A303 RMK A01 T00110001  RH  093%=      5-min Rain = 0
KMC4 141240Z 11008KT 01/00 A303 RMK A01 T00110001  RH  093%=      5-min Rain = 0
KMC4 141241Z 11007KT 01/00 A303 RMK A01 T00110001  RH  093%=      5-min Rain = 0
KMC4 141242Z 11009KT 01/00 A303 RMK A01 T00110001  RH  093%=      5-min Rain = 0
KMC4 141243Z 10009KT 01/00 A303 RMK A01 T00110001  RH  093%=      5-min Rain = 0
KMC4 141244Z 10008KT 01/00 A303 RMK A01 T00110001  RH  093%=      5-min Rain = 0
KMC4 141245Z 10007KT 01/00 A303 RMK A01 T00120001  RH  093%=      5-min Rain = 0
KMC4 141246Z 10007KT 01/00 A303 RMK A01 T00120001  RH  093%=      5-min Rain = 0
KMC4 141247Z 10007KT 01/00 A303 RMK A01 T00120001  RH  092%=      5-min Rain = 0
KMC4 141248Z 10007KT 01/00 A303 RMK A01 T00120001  RH  093%=      5-min Rain = 0
KMC4 141249Z 10008KT 01/00 A303 RMK A01 T00120001  RH  093%=      5-min Rain = 0
KMC4 141250Z 10007KT 01/00 A303 RMK A01 T00120001  RH  093%=      5-min Rain = 0
KMC4 141251Z 10008KT 01/00 A303 RMK A01 T00120001  RH  093%=      5-min Rain = 0
KMC4 141252Z 11008KT 01/00 A303 RMK A01 T00120001  RH  093%=      5-min Rain = 0
KMC4 141253Z 11009KT 01/00 A303 RMK A01 T00120001  RH  093%=      5-min Rain = 0
KMC4 141254Z 11008KT 01/00 A303 RMK A01 T00130002  RH  092%=      5-min Rain = 0
KMC4 141255Z 11008KT 01/00 A303 RMK A01 T00120002  RH  093%=      5-min Rain = 0
KMC4 141256Z 10007KT 01/00 A303 RMK A01 T00130002  RH  092%=      5-min Rain = 0
KMC4 141257Z 11008KT 01/00 A303 RMK A01 T00130002  RH  092%=      5-min Rain = 0
KMC4 141258Z 10008KT 01/00 A303 RMK A01 T00130002  RH  092%=      5-min Rain = 0
KMC4 141259Z 11008KT 01/00 A303 RMK A01 T00130002  RH  092%=      5-min Rain = 0
KMC4 141300Z 11008KT 01/00 A303 RMK A01 T00130002  RH  092%=      5-min Rain = 0
KMC4 141301Z 11009KT 01/00 A303 RMK A01 T00130002  RH  092%=      5-min Rain = 0
KMC4 141302Z 11009KT 01/00 A303 RMK A01 T00130002  RH  092%=      5-min Rain = 0
KMC4 141303Z 11008KT 01/00 A303 RMK A01 T00140002  RH  092%=      5-min Rain = 0
KMC4 141304Z 11009KT 01/00 A303 RMK A01 T00130002  RH  092%=      5-min Rain = 0
KMC4 141305Z 11010KT 01/00 A303 RMK A01 T00130002  RH  092%=      5-min Rain = 0
KMC4 141306Z 11009KT 01/00 A303 RMK A01 T00130002  RH  092%=      5-min Rain = 0
KMC4 141307Z 11009KT 01/00 A303 RMK A01 T00140002  RH  092%=      5-min Rain = 0
KMC4 141308Z 11009KT 01/00 A3031 RMK A01 T00140002  RH  092%=      5-min Rain = 0
KMC4 141309Z 11008KT 01/00 A3031 RMK A01 T00140002  RH  092%=      5-min Rain = 0
KMC4 141310Z 11007KT 01/00 A3031 RMK A01 T00140002  RH  092%=      5-min Rain = 0
KMC4 141311Z 10007KT 01/00 A3031 RMK A01 T00140003  RH  092%=      5-min Rain = 0
KMC4 141312Z 11008KT 01/00 A3031 RMK A01 T00140003  RH  092%=      5-min Rain = 0
KMC4 141313Z 11008KT 01/00 A3031 RMK A01 T00140003  RH  092%=      5-min Rain = 0
KMC4 141314Z 11008KT 01/00 A3031 RMK A01 T00140003  RH  092%=      5-min Rain = 0
KMC4 141315Z 11009KT 01/00 A3031 RMK A01 T00140003  RH  092%=      5-min Rain = 0
KMC4 141316Z 11008KT 01/00 A3031 RMK A01 T00140003  RH  092%=      5-min Rain = 0
KMC4 141317Z 11007KT 01/00 A3031 RMK A01 T00140003  RH  092%=      5-min Rain = 0
KMC4 141318Z 11009KT 01/00 A3031 RMK A01 T00140003  RH  092%=      5-min Rain = 0
KMC4 141319Z 11008KT 01/00 A3031 RMK A01 T00140003  RH  092%=      5-min Rain = 0
KMC4 141320Z 11009KT 02/00 A3031 RMK A01 T00150003  RH  092%=      5-min Rain = 0
KMC4 141321Z 11011KT 01/00 A3031 RMK A01 T00140003  RH  092%=      5-min Rain = 0
KMC4 141322Z 12010KT 02/00 A3031 RMK A01 T00150003  RH  092%=      5-min Rain = 0
KMC4 141323Z 11010KT 02/00 A3031 RMK A01 T00150004  RH  092%=      5-min Rain = 0
KMC4 141324Z 11008KT 02/00 A3031 RMK A01 T00150003  RH  092%=      5-min Rain = 0
KMC4 141325Z 12009KT 02/00 A3031 RMK A01 T00150003  RH  092%=      5-min Rain = 0
KMC4 141326Z 12010KT 02/00 A3031 RMK A01 T00150003  RH  092%=      5-min Rain = 0
KMC4 141327Z 11009KT 02/00 A3031 RMK A01 T00150003  RH  092%=      5-min Rain = 0
KMC4 141328Z 11009KT 02/00 A3031 RMK A01 T00150003  RH  092%=      5-min Rain = 0
KMC4 141329Z 12010KT 02/00 A3031 RMK A01 T00150003  RH  092%=      5-min Rain = 0
KMC4 141330Z 11009KT 02/00 A3031 RMK A01 T00150004  RH  092%=      5-min Rain = 0
KMC4 141331Z 12010KT 02/00 A3031 RMK A01 T00150004  RH  092%=      5-min Rain = 0
KMC4 141332Z 11011KT 02/00 A3031 RMK A01 T00150004  RH  092%=      5-min Rain = 0
KMC4 141333Z 12011KT 02/00 A3031 RMK A01 T00150004  RH  092%=      5-min Rain = 0
KMC4 141334Z 12011KT 02/00 A3031 RMK A01 T00160004  RH  092%=      5-min Rain = 0
KMC4 141335Z 11011KT 02/00 A3031 RMK A01 T00150004  RH  092%=      5-min Rain = 0
KMC4 141336Z 11009KT 02/00 A3031 RMK A01 T00150004  RH  092%=      5-min Rain = 0
KMC4 141337Z 12009KT 02/00 A3031 RMK A01 T00150004  RH  092%=      5-min Rain = 0
KMC4 141338Z 12009KT 02/00 A3032 RMK A01 T00150004  RH  092%=      5-min Rain = 0
KMC4 141339Z 12008KT 02/00 A3032 RMK A01 T00160004  RH  092%=      5-min Rain = 0
KMC4 141340Z 11011KT 02/01 A3032 RMK A01 T00160005  RH  092%=      5-min Rain = 0
KMC4 141341Z 11009KT 02/00 A3032 RMK A01 T00160004  RH  092%=      5-min Rain = 0
KMC4 141342Z 11009KT 02/00 A3032 RMK A01 T00160004  RH  092%=      5-min Rain = 0
KMC4 141343Z 10008KT 02/00 A3032 RMK A01 T00160004  RH  092%=      5-min Rain = 0
KMC4 141344Z 11009KT 02/01 A3032 RMK A01 T00160005  RH  092%=      5-min Rain = 0
KMC4 141345Z 11009KT 02/00 A3032 RMK A01 T00160004  RH  092%=      5-min Rain = 0
KMC4 141346Z 11010KT 02/00 A3032 RMK A01 T00160004  RH  092%=      5-min Rain = 0
KMC4 141347Z 12010KT 02/00 A3032 RMK A01 T00160004  RH  092%=      5-min Rain = 0
KMC4 141348Z 11010KT 02/01 A3032 RMK A01 T00160005  RH  092%=      5-min Rain = 0
KMC4 141349Z 11009KT 02/00 A3032 RMK A01 T00160004  RH  092%=      5-min Rain = 0
KMC4 141350Z 11009KT 02/00 A3032 RMK A01 T00160004  RH  092%=      5-min Rain = 0
KMC4 141351Z 12009KT 02/00 A3032 RMK A01 T00150004  RH  092%=      5-min Rain = 0
KMC4 141352Z 11009KT 02/01 A3032 RMK A01 T00160005  RH  092%=      5-min Rain = 0
KMC4 141353Z 11009KT 02/01 A3032 RMK A01 T00160005  RH  092%=      5-min Rain = 0
KMC4 141354Z 11010KT 02/01 A3032 RMK A01 T00160005  RH  092%=      5-min Rain = 0
KMC4 141355Z 12010KT 02/01 A3032 RMK A01 T00160005  RH  092%=      5-min Rain = 0
KMC4 141356Z 11008KT 02/01 A3032 RMK A01 T00160005  RH  092%=      5-min Rain = 0
KMC4 141357Z 11008KT 02/01 A3032 RMK A01 T00160005  RH  092%=      5-min Rain = 0
KMC4 141358Z 11009KT 02/01 A3032 RMK A01 T00160005  RH  092%=      5-min Rain = 0
KMC4 141359Z 11009KT 02/01 A3032 RMK A01 T00160005  RH  092%=      5-min Rain = 0
KMC4 141400Z 11009KT 02/01 A3032 RMK A01 T00170005  RH  092%=      5-min Rain = 0
KMC4 141401Z 11010KT 02/01 A3032 RMK A01 T00170005  RH  092%=      5-min Rain = 0
KMC4 141402Z 11011KT 02/01 A3032 RMK A01 T00170006  RH  092%=      5-min Rain = 0
KMC4 141403Z 12012KT 02/01 A3032 RMK A01 T00170005  RH  092%=      5-min Rain = 0
KMC4 141404Z 11009KT 02/01 A3032 RMK A01 T00170005  RH  092%=      5-min Rain = 0
KMC4 141405Z 11009KT 02/01 A3032 RMK A01 T00170005  RH  092%=      5-min Rain = 0
KMC4 141406Z 11010KT 02/01 A3032 RMK A01 T00170006  RH  092%=      5-min Rain = 0
KMC4 141407Z 11011KT 02/01 A3032 RMK A01 T00170006  RH  092%=      5-min Rain = 0
KMC4 141408Z 11010KT 02/01 A3032 RMK A01 T00170006  RH  092%=      5-min Rain = 0
KMC4 141409Z 11010KT 02/01 A3032 RMK A01 T00170006  RH  092%=      5-min Rain = 0
KMC4 141410Z 11010KT 02/01 A3032 RMK A01 T00170006  RH  092%=      5-min Rain = 0
KMC4 141411Z 11009KT 02/01 A3032 RMK A01 T00170006  RH  092%=      5-min Rain = 0
KMC4 141412Z 11009KT 02/01 A3032 RMK A01 T00170006  RH  092%=      5-min Rain = 0
KMC4 141413Z 11009KT 02/01 A3032 RMK A01 T00170006  RH  092%=      5-min Rain = 0
KMC4 141414Z 11009KT 02/01 A3033 RMK A01 T00180007  RH  092%=      5-min Rain = 0
KMC4 141415Z 11009KT 02/01 A3033 RMK A01 T00180006  RH  092%=      5-min Rain = 0
KMC4 141416Z 11010KT 02/01 A3033 RMK A01 T00180007  RH  092%=      5-min Rain = 0
KMC4 141417Z 11009KT 02/01 A3033 RMK A01 T00180006  RH  092%=      5-min Rain = 0
KMC4 141418Z 12009KT 02/01 A3033 RMK A01 T00190007  RH  092%=      5-min Rain = 0
KMC4 141419Z 11010KT 02/01 A3033 RMK A01 T00180007  RH  092%=      5-min Rain = 0
KMC4 141420Z 12010KT 02/01 A3033 RMK A01 T00190007  RH  092%=      5-min Rain = 0
KMC4 141421Z 12011KT 02/01 A3033 RMK A01 T00190007  RH  092%=      5-min Rain = 0
KMC4 141422Z 12010KT 02/01 A3033 RMK A01 T00190007  RH  092%=      5-min Rain = 0
KMC4 141423Z 11010KT 02/01 A3033 RMK A01 T00190007  RH  092%=      5-min Rain = 0
KMC4 141424Z 11010KT 02/01 A3033 RMK A01 T00190007  RH  092%=      5-min Rain = 0
KMC4 141425Z 12010KT 02/01 A3033 RMK A01 T00190007  RH  092%=      5-min Rain = 0
KMC4 141426Z 12011KT 02/01 A3033 RMK A01 T00190007  RH  092%=      5-min Rain = 0
KMC4 141427Z 12010KT 02/01 A3033 RMK A01 T00190007  RH  092%=      5-min Rain = 0
KMC4 141428Z 12009KT 02/01 A3033 RMK A01 T00200008  RH  092%=      5-min Rain = 0
KMC4 141429Z 11009KT 02/01 A3033 RMK A01 T00200008  RH  092%=      5-min Rain = 0
KMC4 141430Z 11010KT 02/01 A3033 RMK A01 T00200008  RH  091%=      5-min Rain = 0
KMC4 141431Z 11010KT 02/01 A3033 RMK A01 T00200008  RH  091%=      5-min Rain = 0
KMC4 141432Z 11010KT 02/01 A3033 RMK A01 T00200008  RH  091%=      5-min Rain = 0
KMC4 141433Z 12010KT 02/01 A3033 RMK A01 T00210008  RH  091%=      5-min Rain = 0
KMC4 141434Z 12010KT 02/01 A3033 RMK A01 T00210007  RH  091%=      5-min Rain = 0
KMC4 141435Z 12011KT 02/01 A3033 RMK A01 T00210008  RH  091%=      5-min Rain = 0
KMC4 141436Z 11012KT 02/01 A3033 RMK A01 T00210008  RH  091%=      5-min Rain = 0
KMC4 141437Z 13013KT 02/01 A3033 RMK A01 T00220008  RH  091%=      5-min Rain = 0
KMC4 141438Z 13010KT 02/01 A3033 RMK A01 T00220007  RH  090%=      5-min Rain = 0
KMC4 141439Z 12010KT 02/01 A3033 RMK A01 T00220008  RH  090%=      5-min Rain = 0
KMC4 141440Z 12010KT 02/01 A3033 RMK A01 T00230008  RH  090%=      5-min Rain = 0
KMC4 141441Z 13010KT 02/01 A3033 RMK A01 T00230008  RH  090%=      5-min Rain = 0
KMC4 141442Z 13010KT 02/01 A3033 RMK A01 T00230008  RH  090%=      5-min Rain = 0
KMC4 141443Z 12009KT 02/01 A3033 RMK A01 T00230008  RH  090%=      5-min Rain = 0
KMC4 141444Z 13011KT 02/01 A3033 RMK A01 T00230009  RH  090%=      5-min Rain = 0
KMC4 141445Z 13010KT 02/01 A3033 RMK A01 T00240009  RH  090%=      5-min Rain = 0
KMC4 141446Z 12010KT 02/01 A3033 RMK A01 T00240009  RH  090%=      5-min Rain = 0
KMC4 141447Z 13013KT 02/01 A3033 RMK A01 T00240008  RH  090%=      5-min Rain = 0
KMC4 141448Z 12013KT 02/01 A3033 RMK A01 T00240008  RH  089%=      5-min Rain = 0
KMC4 141449Z 12011KT 02/01 A3033 RMK A01 T00240008  RH  089%=      5-min Rain = 0
KMC4 141450Z 12009KT 02/01 A3033 RMK A01 T00240008  RH  089%=      5-min Rain = 0
KMC4 141451Z 13010KT 03/01 A3033 RMK A01 T00250008  RH  089%=      5-min Rain = 0
KMC4 141452Z 12012KT 03/01 A3033 RMK A01 T00250009  RH  089%=      5-min Rain = 0
KMC4 141453Z 12012KT 03/01 A3033 RMK A01 T00250008  RH  089%=      5-min Rain = 0
KMC4 141454Z 13010KT 03/01 A3033 RMK A01 T00250008  RH  088%=      5-min Rain = 0
KMC4 141455Z 13012KT 03/01 A3033 RMK A01 T00260008  RH  088%=      5-min Rain = 0
KMC4 141456Z 13011KT 03/01 A3033 RMK A01 T00260008  RH  088%=      5-min Rain = 0
KMC4 141457Z 13010KT 03/01 A3033 RMK A01 T00260009  RH  088%=      5-min Rain = 0
KMC4 141458Z 13010KT 03/01 A3034 RMK A01 T00270009  RH  088%=      5-min Rain = 0
KMC4 141459Z 13010KT 03/01 A3034 RMK A01 T00270009  RH  088%=      5-min Rain = 0
KMC4 141500Z 13011KT 03/01 A3033 RMK A01 T00270009  RH  088%=      5-min Rain = 0
KMC4 141501Z 12012KT 03/01 A3033 RMK A01 T00280009  RH  088%=      5-min Rain = 0
KMC4 141502Z 13012KT 03/01 A3033 RMK A01 T00280009  RH  087%=      5-min Rain = 0
KMC4 141503Z 13010KT 03/01 A3033 RMK A01 T00280008  RH  087%=      5-min Rain = 0
KMC4 141504Z 14010KT 03/01 A3033 RMK A01 T00270008  RH  087%=      5-min Rain = 0
KMC4 141505Z 13011KT 03/01 A3033 RMK A01 T00270008  RH  087%=      5-min Rain = 0
KMC4 141506Z 13011KT 03/01 A3033 RMK A01 T00280009  RH  087%=      5-min Rain = 0
KMC4 141507Z 13011KT 03/01 A3033 RMK A01 T00290009  RH  087%=      5-min Rain = 0
KMC4 141508Z 13009KT 03/01 A3033 RMK A01 T00290009  RH  087%=      5-min Rain = 0
KMC4 141509Z 13011KT 03/01 A3033 RMK A01 T00290009  RH  087%=      5-min Rain = 0
KMC4 141510Z 13012KT 03/01 A3033 RMK A01 T00290009  RH  087%=      5-min Rain = 0
KMC4 141511Z 13012KT 03/01 A3033 RMK A01 T00290008  RH  086%=      5-min Rain = 0
KMC4 141512Z 12012KT 03/01 A3033 RMK A01 T00290008  RH  086%=      5-min Rain = 0
KMC4 141513Z 13010KT 03/01 A3033 RMK A01 T00290008  RH  086%=      5-min Rain = 0
KMC4 141514Z 12010KT 03/01 A3033 RMK A01 T00290008  RH  086%=      5-min Rain = 0
KMC4 141515Z 12011KT 03/01 A3033 RMK A01 T00290008  RH  086%=      5-min Rain = 0
KMC4 141516Z 13010KT 03/01 A3033 RMK A01 T00290008  RH  086%=      5-min Rain = 0
KMC4 141517Z 13010KT 03/01 A3033 RMK A01 T00290008  RH  086%=      5-min Rain = 0
KMC4 141518Z 13009KT 03/01 A3033 RMK A01 T00300009  RH  086%=      5-min Rain = 0
KMC4 141519Z 13010KT 03/01 A3033 RMK A01 T00300009  RH  086%=      5-min Rain = 0
KMC4 141520Z 14011KT 03/01 A3033 RMK A01 T00300009  RH  086%=      5-min Rain = 0
KMC4 141521Z 14012KT 03/01 A3033 RMK A01 T00300008  RH  086%=      5-min Rain = 0
KMC4 141522Z 13011KT 03/01 A3033 RMK A01 T00300008  RH  085%=      5-min Rain = 0
KMC4 141523Z 13011KT 03/01 A3033 RMK A01 T00310009  RH  086%=      5-min Rain = 0
KMC4 141524Z 12013KT 03/01 A3033 RMK A01 T00310009  RH  085%=      5-min Rain = 0
KMC4 141525Z 13012KT 03/01 A3033 RMK A01 T00310008  RH  085%=      5-min Rain = 0
KMC4 141526Z 14012KT 03/01 A3034 RMK A01 T00310008  RH  085%=      5-min Rain = 0
KMC4 141527Z 14014KT 03/01 A3034 RMK A01 T00310008  RH  085%=      5-min Rain = 0
KMC4 141528Z 14013KT 03/01 A3034 RMK A01 T00320008  RH  084%=      5-min Rain = 0
KMC4 141529Z 14013KT 03/01 A3034 RMK A01 T00320007  RH  084%=      5-min Rain = 0
KMC4 141530Z 13012KT 03/01 A3034 RMK A01 T00320007  RH  084%=      5-min Rain = 0
KMC4 141531Z 13011KT 03/01 A3033 RMK A01 T00320007  RH  084%=      5-min Rain = 0
KMC4 141532Z 14013KT 03/01 A3033 RMK A01 T00320008  RH  084%=      5-min Rain = 0
KMC4 141533Z 14012KT 03/01 A3033 RMK A01 T00330008  RH  084%=      5-min Rain = 0
KMC4 141534Z 13012KT 03/01 A3033 RMK A01 T00330008  RH  084%=      5-min Rain = 0
KMC4 141535Z 14013KT 03/01 A3033 RMK A01 T00340008  RH  084%=      5-min Rain = 0
KMC4 141536Z 14014KT 03/01 A3033 RMK A01 T00340008  RH  083%=      5-min Rain = 0
KMC4 141537Z 14013KT 03/01 A3033 RMK A01 T00330007  RH  083%=      5-min Rain = 0
KMC4 141538Z 14013KT 03/01 A3033 RMK A01 T00330007  RH  083%=      5-min Rain = 0
KMC4 141539Z 13011KT 03/01 A3033 RMK A01 T00330007  RH  083%=      5-min Rain = 0
KMC4 141540Z 13014KT 03/01 A3033 RMK A01 T00330007  RH  083%=      5-min Rain = 0
KMC4 141541Z 14013KT 03/01 A3033 RMK A01 T00340007  RH  083%=      5-min Rain = 0
KMC4 141542Z 13012KT 03/01 A3033 RMK A01 T00340008  RH  083%=      5-min Rain = 0
KMC4 141543Z 13013KT 03/01 A3033 RMK A01 T00340007  RH  083%=      5-min Rain = 0
KMC4 141544Z 14012KT 03/01 A3033 RMK A01 T00340008  RH  083%=      5-min Rain = 0
KMC4 141545Z 14011KT 03/01 A3033 RMK A01 T00340008  RH  083%=      5-min Rain = 0
KMC4 141546Z 14011KT 04/01 A3033 RMK A01 T00350008  RH  083%=      5-min Rain = 0
KMC4 141547Z 15012KT 04/01 A3033 RMK A01 T00350009  RH  083%=      5-min Rain = 0
KMC4 141548Z 13010KT 04/01 A3033 RMK A01 T00360008  RH  082%=      5-min Rain = 0
KMC4 141549Z 14014KT 04/01 A3033 RMK A01 T00360009  RH  082%=      5-min Rain = 0
KMC4 141550Z 14013KT 04/01 A3033 RMK A01 T00360008  RH  082%=      5-min Rain = 0
KMC4 141551Z 13012KT 04/01 A3033 RMK A01 T00360008  RH  082%=      5-min Rain = 0
KMC4 141552Z 13013KT 04/01 A3033 RMK A01 T00370009  RH  082%=      5-min Rain = 0
KMC4 141553Z 15013KT 04/01 A3033 RMK A01 T00370008  RH  082%=      5-min Rain = 0
KMC4 141554Z 14010KT 04/01 A3033 RMK A01 T00370009  RH  082%=      5-min Rain = 0
KMC4 141555Z 14012KT 04/01 A3033 RMK A01 T00380010  RH  082%=      5-min Rain = 0
KMC4 141556Z 13014KT 04/01 A3033 RMK A01 T00380009  RH  082%=      5-min Rain = 0
KMC4 141557Z 14014KT 04/01 A3033 RMK A01 T00380009  RH  081%=      5-min Rain = 0
KMC4 141558Z 14013KT 04/01 A3033 RMK A01 T00370008  RH  081%=      5-min Rain = 0
KMC4 141559Z 14013KT 04/01 A3033 RMK A01 T00370009  RH  082%=      5-min Rain = 0
KMC4 141600Z 13013KT 04/01 A3033 RMK A01 T00370008  RH  081%=      5-min Rain = 0
KMC4 141601Z 13014KT 04/01 A3033 RMK A01 T00380009  RH  081%=      5-min Rain = 0
KMC4 141602Z 14012KT 04/01 A3033 RMK A01 T00380009  RH  081%=      5-min Rain = 0
KMC4 141603Z 13013KT 04/01 A3033 RMK A01 T00380009  RH  081%=      5-min Rain = 0
KMC4 141604Z 13014KT 04/01 A3033 RMK A01 T00380009  RH  081%=      5-min Rain = 0
KMC4 141605Z 13011KT 04/01 A3033 RMK A01 T00380009  RH  081%=      5-min Rain = 0
KMC4 141606Z 13014KT 04/01 A3033 RMK A01 T00380009  RH  081%=      5-min Rain = 0
KMC4 141607Z 14012KT 04/01 A3033 RMK A01 T00380009  RH  081%=      5-min Rain = 0
KMC4 141608Z 13011KT 04/01 A3033 RMK A01 T00380009  RH  081%=      5-min Rain = 0
KMC4 141609Z 13014KT 04/01 A3033 RMK A01 T00390010  RH  081%=      5-min Rain = 0
KMC4 141610Z 14014KT 04/01 A3033 RMK A01 T00390009  RH  081%=      5-min Rain = 0
KMC4 141611Z 13013KT 04/01 A3033 RMK A01 T00390009  RH  081%=      5-min Rain = 0
KMC4 141612Z 13013KT 04/01 A3033 RMK A01 T00390010  RH  081%=      5-min Rain = 0
KMC4 141613Z 13011KT 04/01 A3033 RMK A01 T00390010  RH  081%=      5-min Rain = 0
KMC4 141614Z 13013KT 04/01 A3033 RMK A01 T00400011  RH  081%=      5-min Rain = 0
KMC4 141615Z 13013KT 04/01 A3033 RMK A01 T00410010  RH  081%=      5-min Rain = 0
KMC4 141616Z 13014KT 04/01 A3033 RMK A01 T00410010  RH  081%=      5-min Rain = 0
KMC4 141617Z 13013KT 04/01 A3033 RMK A01 T00410010  RH  081%=      5-min Rain = 0
KMC4 141618Z 13014KT 04/01 A3033 RMK A01 T00410010  RH  081%=      5-min Rain = 0
KMC4 141619Z 13016KT 04/01 A3033 RMK A01 T00410010  RH  080%=      5-min Rain = 0
KMC4 141620Z 13014KT 04/01 A3033 RMK A01 T00400009  RH  080%=      5-min Rain = 0
KMC4 141621Z 13011KT 04/01 A3033 RMK A01 T00400009  RH  080%=      5-min Rain = 0
KMC4 141622Z 13013KT 04/01 A3033 RMK A01 T00400010  RH  081%=      5-min Rain = 0
KMC4 141623Z 13016KT 04/01 A3032 RMK A01 T00410010  RH  081%=      5-min Rain = 0
KMC4 141624Z 13016KT 04/01 A3032 RMK A01 T00400010  RH  080%=      5-min Rain = 0
KMC4 141625Z 15016KT 04/01 A3032 RMK A01 T00400009  RH  080%=      5-min Rain = 0
KMC4 141626Z 14014KT 04/01 A3032 RMK A01 T00400009  RH  080%=      5-min Rain = 0
KMC4 141627Z 13014KT 04/01 A3032 RMK A01 T00400009  RH  080%=      5-min Rain = 0
KMC4 141628Z 13013KT 04/01 A3032 RMK A01 T00400009  RH  080%=      5-min Rain = 0
KMC4 141629Z 13012KT 04/01 A3033 RMK A01 T00410011  RH  081%=      5-min Rain = 0
KMC4 141630Z 13012KT 04/01 A3032 RMK A01 T00420012  RH  081%=      5-min Rain = 0
KMC4 141631Z 14012KT 04/01 A3032 RMK A01 T00430012  RH  080%=      5-min Rain = 0
KMC4 141632Z 14012KT 04/01 A3032 RMK A01 T00430011  RH  080%=      5-min Rain = 0
KMC4 141633Z 14016KT 04/01 A3032 RMK A01 T00430011  RH  079%=      5-min Rain = 0
KMC4 141634Z 15015KT 04/01 A3032 RMK A01 T00430010  RH  079%=      5-min Rain = 0
KMC4 141635Z 15014KT 04/01 A3032 RMK A01 T00430010  RH  079%=      5-min Rain = 0
KMC4 141636Z 15016KT 04/01 A3032 RMK A01 T00430010  RH  079%=      5-min Rain = 0
KMC4 141637Z 15013KT 04/01 A3032 RMK A01 T00430010  RH  079%=      5-min Rain = 0
KMC4 141638Z 15013KT 04/01 A3032 RMK A01 T00430010  RH  079%=      5-min Rain = 0
KMC4 141639Z 15012KT 04/01 A3032 RMK A01 T00430010  RH  079%=      5-min Rain = 0
KMC4 141640Z 14010KT 04/01 A3032 RMK A01 T00440011  RH  079%=      5-min Rain = 0
KMC4 141641Z 15013KT 05/01 A3032 RMK A01 T00450012  RH  079%=      5-min Rain = 0
KMC4 141642Z 15014KT 05/01 A3032 RMK A01 T00450011  RH  079%=      5-min Rain = 0
KMC4 141643Z 15014KT 05/01 A3032 RMK A01 T00450011  RH  078%=      5-min Rain = 0
KMC4 141644Z 15015KT 04/01 A3032 RMK A01 T00440010  RH  078%=      5-min Rain = 0
KMC4 141645Z 14013KT 04/01 A3032 RMK A01 T00440010  RH  078%=      5-min Rain = 0
KMC4 141646Z 15014KT 05/01 A3032 RMK A01 T00450011  RH  079%=      5-min Rain = 0
KMC4 141647Z 15013KT 05/01 A3032 RMK A01 T00450011  RH  078%=      5-min Rain = 0
KMC4 141648Z 14014KT 05/01 A3032 RMK A01 T00460012  RH  078%=      5-min Rain = 0
KMC4 141649Z 13013KT 05/01 A3032 RMK A01 T00460011  RH  078%=      5-min Rain = 0
KMC4 141650Z 14013KT 05/01 A3032 RMK A01 T00480012  RH  078%=      5-min Rain = 0
KMC4 141651Z 15014KT 05/01 A3032 RMK A01 T00490014  RH  078%=      5-min Rain = 0
KMC4 141652Z 13014KT 05/01 A3032 RMK A01 T00500012  RH  077%=      5-min Rain = 0
KMC4 141653Z 15012KT 05/01 A3032 RMK A01 T00500013  RH  077%=      5-min Rain = 0
KMC4 141654Z 14013KT 05/01 A3032 RMK A01 T00500011  RH  076%=      5-min Rain = 0
KMC4 141655Z 15011KT 05/01 A3032 RMK A01 T00490011  RH  076%=      5-min Rain = 0
KMC4 141656Z 14011KT 05/01 A3032 RMK A01 T00490012  RH  077%=      5-min Rain = 0
KMC4 141657Z 13012KT 05/01 A3032 RMK A01 T00500012  RH  077%=      5-min Rain = 0
KMC4 141658Z 13012KT 05/01 A3032 RMK A01 T00500014  RH  078%=      5-min Rain = 0
KMC4 141659Z 13013KT 05/01 A3032 RMK A01 T00500013  RH  077%=      5-min Rain = 0
KMC4 141700Z 13014KT 05/01 A3032 RMK A01 T00490012  RH  077%=      5-min Rain = 0
KMC4 141701Z 14013KT 05/01 A3032 RMK A01 T00490013  RH  078%=      5-min Rain = 0
KMC4 141702Z 14013KT 05/01 A3032 RMK A01 T00490012  RH  077%=      5-min Rain = 0
KMC4 141703Z 14013KT 05/01 A3032 RMK A01 T00490012  RH  077%=      5-min Rain = 0
KMC4 141704Z 13011KT 05/01 A3032 RMK A01 T00490012  RH  077%=      5-min Rain = 0
KMC4 141705Z 13011KT 05/01 A3032 RMK A01 T00490013  RH  077%=      5-min Rain = 0
KMC4 141706Z 13014KT 05/01 A3032 RMK A01 T00490012  RH  077%=      5-min Rain = 0
KMC4 141707Z 13012KT 05/01 A3032 RMK A01 T00490013  RH  077%=      5-min Rain = 0
KMC4 141708Z 13014KT 05/01 A3032 RMK A01 T00500013  RH  077%=      5-min Rain = 0
KMC4 141709Z 13015KT 05/01 A3032 RMK A01 T00500012  RH  077%=      5-min Rain = 0
KMC4 141710Z 13014KT 05/01 A3032 RMK A01 T00500012  RH  076%=      5-min Rain = 0
KMC4 141711Z 13014KT 05/01 A3032 RMK A01 T00500012  RH  076%=      5-min Rain = 0
KMC4 141712Z 14014KT 05/01 A3032 RMK A01 T00500012  RH  077%=      5-min Rain = 0
KMC4 141713Z 13011KT 05/01 A3032 RMK A01 T00500012  RH  076%=      5-min Rain = 0
KMC4 141714Z 12013KT 05/01 A3032 RMK A01 T00510013  RH  076%=      5-min Rain = 0
KMC4 141715Z 12013KT 05/01 A3032 RMK A01 T00510013  RH  076%=      5-min Rain = 0
KMC4 141716Z 12012KT 05/01 A3032 RMK A01 T00510013  RH  076%=      5-min Rain = 0
KMC4 141717Z 12015KT 05/01 A3032 RMK A01 T00520013  RH  076%=      5-min Rain = 0
KMC4 141718Z 12012KT 05/01 A3032 RMK A01 T00520012  RH  076%=      5-min Rain = 0
KMC4 141719Z 14014KT 05/01 A3032 RMK A01 T00520014  RH  076%=      5-min Rain = 0
KMC4 141720Z 13015KT 05/01 A3031 RMK A01 T00530013  RH  075%=      5-min Rain = 0
KMC4 141721Z 14014KT 05/01 A3032 RMK A01 T00540014  RH  075%=      5-min Rain = 0
KMC4 141722Z 14012KT 06/01 A3032 RMK A01 T00550014  RH  075%=      5-min Rain = 0
KMC4 141723Z 13013KT 06/01 A3031 RMK A01 T00560014  RH  074%=      5-min Rain = 0
KMC4 141724Z 12015KT 06/01 A3031 RMK A01 T00550014  RH  075%=      5-min Rain = 0
KMC4 141725Z 13014KT 06/01 A3031 RMK A01 T00550012  RH  074%=      5-min Rain = 0
KMC4 141726Z 13014KT 05/01 A3031 RMK A01 T00540013  RH  074%=      5-min Rain = 0
KMC4 141727Z 12013KT 06/01 A3031 RMK A01 T00550014  RH  075%=      5-min Rain = 0
KMC4 141728Z 14016KT 06/02 A3031 RMK A01 T00580017  RH  075%=      5-min Rain = 0
KMC4 141729Z 13013KT 06/01 A3031 RMK A01 T00600014  RH  073%=      5-min Rain = 0
KMC4 141730Z 14012KT 06/01 A3031 RMK A01 T00580013  RH  073%=      5-min Rain = 0
KMC4 141731Z 13014KT 06/01 A3031 RMK A01 T00580014  RH  073%=      5-min Rain = 0
KMC4 141732Z 13016KT 06/01 A3031 RMK A01 T00580013  RH  073%=      5-min Rain = 0
KMC4 141733Z 13014KT 06/01 A3031 RMK A01 T00580014  RH  073%=      5-min Rain = 0
KMC4 141734Z 12014KT 06/02 A3031 RMK A01 T00590015  RH  073%=      5-min Rain = 0
KMC4 141735Z 13013KT 06/02 A3031 RMK A01 T00600015  RH  073%=      5-min Rain = 0
KMC4 141736Z 13013KT 06/02 A3031 RMK A01 T00620016  RH  073%=      5-min Rain = 0
KMC4 141737Z 12014KT 06/02 A3031 RMK A01 T00630016  RH  071%=      5-min Rain = 0
KMC4 141738Z 12015KT 06/01 A3031 RMK A01 T00610013  RH  071%=      5-min Rain = 0
KMC4 141739Z 12011KT 06/01 A3031 RMK A01 T00600014  RH  072%=      5-min Rain = 0
KMC4 141740Z 13014KT 06/02 A3031 RMK A01 T00610016  RH  073%=      5-min Rain = 0
KMC4 141741Z 14015KT 06/01 A3031 RMK A01 T00610014  RH  072%=      5-min Rain = 0
KMC4 141742Z 14015KT 06/01 A3031 RMK A01 T00610013  RH  071%=      5-min Rain = 0
KMC4 141743Z 13015KT 06/02 A3031 RMK A01 T00620016  RH  072%=      5-min Rain = 0
KMC4 141744Z 12014KT 06/02 A3031 RMK A01 T00640015  RH  071%=      5-min Rain = 0
KMC4 141745Z 13011KT 06/01 A3031 RMK A01 T00610013  RH  071%=      5-min Rain = 0
KMC4 141746Z 13015KT 06/01 A3031 RMK A01 T00600014  RH  072%=      5-min Rain = 0
KMC4 141747Z 13013KT 06/01 A3031 RMK A01 T00600014  RH  072%=      5-min Rain = 0
KMC4 141748Z 13012KT 06/02 A3031 RMK A01 T00630017  RH  072%=      5-min Rain = 0
KMC4 141749Z 14010KT 06/02 A3031 RMK A01 T00640016  RH  071%=      5-min Rain = 0
KMC4 141750Z 15008KT 06/02 A3031 RMK A01 T00640015  RH  071%=      5-min Rain = 0
KMC4 141751Z 15008KT 06/02 A3031 RMK A01 T00640015  RH  071%=      5-min Rain = 0
KMC4 141752Z 16014KT 07/02 A3031 RMK A01 T00660016  RH  071%=      5-min Rain = 0
KMC4 141753Z 14013KT 07/01 A3031 RMK A01 T00660014  RH  069%=      5-min Rain = 0
KMC4 141754Z 15015KT 07/01 A303 RMK A01 T00660014  RH  069%=      5-min Rain = 0
KMC4 141755Z 15014KT 07/02 A303 RMK A01 T00670015  RH  069%=      5-min Rain = 0
KMC4 141756Z 13013KT 07/02 A303 RMK A01 T00680015  RH  069%=      5-min Rain = 0
KMC4 141757Z 13014KT 07/01 A303 RMK A01 T00670014  RH  069%=      5-min Rain = 0
KMC4 141758Z 14013KT 07/02 A303 RMK A01 T00670016  RH  070%=      5-min Rain = 0
KMC4 141759Z 14012KT 07/02 A303 RMK A01 T00670015  RH  069%=      5-min Rain = 0
KMC4 141800Z 15012KT 07/02 A303 RMK A01 T00690018  RH  070%=      5-min Rain = 0
KMC4 141801Z 15011KT 07/02 A303 RMK A01 T00680015  RH  069%=      5-min Rain = 0
KMC4 141802Z 14011KT 07/01 A303 RMK A01 T00660014  RH  069%=      5-min Rain = 0
KMC4 141803Z 12012KT 07/02 A303 RMK A01 T00680017  RH  070%=      5-min Rain = 0
KMC4 141804Z 16011KT 07/02 A303 RMK A01 T00690016  RH  069%=      5-min Rain = 0
KMC4 141805Z 14011KT 07/01 A303 RMK A01 T00670013  RH  068%=      5-min Rain = 0
KMC4 141806Z 13010KT 06/01 A303 RMK A01 T00640013  RH  070%=      5-min Rain = 0
KMC4 141807Z 15009KT 06/02 A303 RMK A01 T00640015  RH  071%=      5-min Rain = 0
KMC4 141808Z 14009KT 07/01 A303 RMK A01 T00650014  RH  070%=      5-min Rain = 0
KMC4 141809Z 13010KT 07/02 A303 RMK A01 T00660018  RH  071%=      5-min Rain = 0
KMC4 141810Z 13013KT 07/02 A303 RMK A01 T00700019  RH  070%=      5-min Rain = 0
KMC4 141811Z 13012KT 07/01 A303 RMK A01 T00680013  RH  068%=      5-min Rain = 0
KMC4 141812Z 11012KT 07/01 A303 RMK A01 T00650013  RH  070%=      5-min Rain = 0
KMC4 141813Z 14013KT 06/01 A303 RMK A01 T00640014  RH  070%=      5-min Rain = 0
KMC4 141814Z 13013KT 06/01 A303 RMK A01 T00640014  RH  070%=      5-min Rain = 0
KMC4 141815Z 14013KT 06/01 A303 RMK A01 T00640014  RH  071%=      5-min Rain = 0
KMC4 141816Z 14016KT 07/02 A303 RMK A01 T00650015  RH  071%=      5-min Rain = 0
KMC4 141817Z 14014KT 07/01 A303 RMK A01 T00650014  RH  070%=      5-min Rain = 0
KMC4 141818Z 14014KT 07/02 A303 RMK A01 T00670015  RH  069%=      5-min Rain = 0
KMC4 141819Z 13012KT 07/02 A303 RMK A01 T00690016  RH  069%=      5-min Rain = 0
KMC4 141820Z 14013KT 07/02 A303 RMK A01 T00710018  RH  069%=      5-min Rain = 0
KMC4 141821Z 14012KT 07/02 A303 RMK A01 T00710016  RH  068%=      5-min Rain = 0
KMC4 141822Z 13013KT 07/02 A303 RMK A01 T00710017  RH  068%=      5-min Rain = 0
KMC4 141823Z 13015KT 07/02 A303 RMK A01 T00710015  RH  068%=      5-min Rain = 0
KMC4 141824Z 13013KT 07/01 A303 RMK A01 T00690014  RH  068%=      5-min Rain = 0
KMC4 141825Z 12011KT 07/02 A303 RMK A01 T00680015  RH  069%=      5-min Rain = 0
KMC4 141826Z 13008KT 07/02 A303 RMK A01 T00690016  RH  069%=      5-min Rain = 0
KMC4 141827Z 14010G15KT 07/02 A303 RMK A01 T00690015  RH  068%=      5-min Rain = 0
KMC4 141828Z 14010KT 07/02 A303 RMK A01 T00710018  RH  069%=      5-min Rain = 0
KMC4 141829Z 14012KT 07/02 A303 RMK A01 T00740017  RH  067%=      5-min Rain = 0
KMC4 141830Z 15013KT 07/02 A303 RMK A01 T00740019  RH  068%=      5-min Rain = 0
KMC4 141831Z 13014KT 07/02 A303 RMK A01 T00740016  RH  066%=      5-min Rain = 0
KMC4 141832Z 14012KT 07/02 A3029 RMK A01 T00720015  RH  067%=      5-min Rain = 0
KMC4 141833Z 14011KT 07/02 A3029 RMK A01 T00710015  RH  067%=      5-min Rain = 0
KMC4 141834Z 13010KT 07/02 A3029 RMK A01 T00720017  RH  068%=      5-min Rain = 0
KMC4 141835Z 14010G15KT 07/02 A3029 RMK A01 T00740019  RH  068%=      5-min Rain = 0
KMC4 141836Z 15012KT 08/02 A3029 RMK A01 T00770018  RH  066%=      5-min Rain = 0
KMC4 141837Z 16009KT 08/01 A3029 RMK A01 T00760014  RH  065%=      5-min Rain = 0
KMC4 141838Z 15011KT 07/01 A3029 RMK A01 T00740014  RH  066%=      5-min Rain = 0
KMC4 141839Z 13010KT 07/01 A3029 RMK A01 T00740014  RH  066%=      5-min Rain = 0
KMC4 141840Z 13008KT 07/02 A3029 RMK A01 T00740015  RH  066%=      5-min Rain = 0
KMC4 141841Z 13013KT 08/02 A3029 RMK A01 T00760018  RH  067%=      5-min Rain = 0
KMC4 141842Z 13013KT 08/02 A3029 RMK A01 T00750015  RH  066%=      5-min Rain = 0
KMC4 141843Z 11011KT 08/02 A3029 RMK A01 T00750017  RH  067%=      5-min Rain = 0
KMC4 141844Z 13014KT 08/02 A3029 RMK A01 T00760017  RH  066%=      5-min Rain = 0
KMC4 141845Z 13014KT 08/02 A3029 RMK A01 T00770017  RH  066%=      5-min Rain = 0
KMC4 141846Z 12013KT 08/01 A3029 RMK A01 T00760014  RH  065%=      5-min Rain = 0
KMC4 141847Z 12011KT 07/01 A3029 RMK A01 T00730013  RH  066%=      5-min Rain = 0
KMC4 141848Z 13014KT 07/02 A3029 RMK A01 T00720015  RH  067%=      5-min Rain = 0
KMC4 141849Z 13013KT 07/02 A3029 RMK A01 T00740017  RH  067%=      5-min Rain = 0
KMC4 141850Z 13013KT 08/02 A3029 RMK A01 T00780019  RH  066%=      5-min Rain = 0
KMC4 141851Z 13015KT 08/02 A3029 RMK A01 T00780017  RH  065%=      5-min Rain = 0
KMC4 141852Z 12016KT 08/02 A3028 RMK A01 T00770015  RH  065%=      5-min Rain = 0
KMC4 141853Z 13011KT 07/01 A3028 RMK A01 T00740013  RH  065%=      5-min Rain = 0
KMC4 141854Z 14012KT 07/02 A3028 RMK A01 T00730015  RH  067%=      5-min Rain = 0
KMC4 141855Z 12011KT 08/02 A3028 RMK A01 T00760016  RH  066%=      5-min Rain = 0
KMC4 141856Z 15010KT 08/02 A3028 RMK A01 T00750015  RH  066%=      5-min Rain = 0
KMC4 141857Z 14012KT 08/02 A3028 RMK A01 T00750017  RH  066%=      5-min Rain = 0
KMC4 141858Z 14013KT 08/02 A3028 RMK A01 T00760016  RH  066%=      5-min Rain = 0
KMC4 141859Z 12013KT 08/02 A3028 RMK A01 T00760016  RH  066%=      5-min Rain = 0
KMC4 141900Z 12011KT 08/01 A3028 RMK A01 T00760014  RH  065%=      5-min Rain = 0
KMC4 141901Z 13012KT 07/01 A3028 RMK A01 T00740013  RH  066%=      5-min Rain = 0
KMC4 141902Z 12012KT 07/02 A3028 RMK A01 T00740015  RH  066%=      5-min Rain = 0
KMC4 141903Z 11014KT 08/02 A3028 RMK A01 T00750015  RH  066%=      5-min Rain = 0
KMC4 141904Z 11012KT 08/01 A3028 RMK A01 T00750014  RH  066%=      5-min Rain = 0
KMC4 141905Z 10010KT 07/01 A3028 RMK A01 T00740014  RH  066%=      5-min Rain = 0
KMC4 141906Z 13013KT 08/02 A3028 RMK A01 T00750017  RH  066%=      5-min Rain = 0
KMC4 141907Z 14015KT 08/02 A3028 RMK A01 T00790018  RH  065%=      5-min Rain = 0
KMC4 141908Z 15013KT 08/02 A3028 RMK A01 T00790016  RH  064%=      5-min Rain = 0
KMC4 141909Z 16012KT 08/02 A3028 RMK A01 T00770015  RH  065%=      5-min Rain = 0
KMC4 141910Z 17011KT 08/01 A3028 RMK A01 T00760014  RH  065%=      5-min Rain = 0
KMC4 141911Z 15012KT 07/01 A3028 RMK A01 T00740013  RH  065%=      5-min Rain = 0
KMC4 141912Z 12014KT 08/02 A3028 RMK A01 T00750015  RH  066%=      5-min Rain = 0
KMC4 141913Z 12010KT 08/01 A3028 RMK A01 T00760014  RH  065%=      5-min Rain = 0
KMC4 141914Z 12010KT 08/02 A3028 RMK A01 T00760016  RH  066%=      5-min Rain = 0
KMC4 141915Z 12010KT 08/02 A3028 RMK A01 T00800018  RH  065%=      5-min Rain = 0
KMC4 141916Z 13013KT 08/01 A3028 RMK A01 T00780013  RH  064%=      5-min Rain = 0
KMC4 141917Z 13012KT 08/01 A3028 RMK A01 T00770014  RH  065%=      5-min Rain = 0
KMC4 141918Z 13013KT 08/02 A3028 RMK A01 T00780016  RH  065%=      5-min Rain = 0
KMC4 141919Z 13012KT 08/02 A3028 RMK A01 T00790016  RH  065%=      5-min Rain = 0
KMC4 141920Z 14012KT 08/02 A3028 RMK A01 T00800016  RH  064%=      5-min Rain = 0
KMC4 141921Z 14010KT 08/02 A3028 RMK A01 T00790015  RH  064%=      5-min Rain = 0
KMC4 141922Z 15012KT 08/02 A3028 RMK A01 T00780015  RH  064%=      5-min Rain = 0
KMC4 141923Z 15013KT 08/02 A3027 RMK A01 T00790016  RH  065%=      5-min Rain = 0
KMC4 141924Z 14012KT 08/02 A3027 RMK A01 T00780015  RH  064%=      5-min Rain = 0
KMC4 141925Z 13012KT 08/02 A3027 RMK A01 T00790019  RH  065%=      5-min Rain = 0
KMC4 141926Z 14013KT 08/02 A3027 RMK A01 T00810017  RH  064%=      5-min Rain = 0
KMC4 141927Z 12009KT 08/01 A3027 RMK A01 T00780014  RH  064%=      5-min Rain = 0
KMC4 141928Z 12009KT 07/01 A3027 RMK A01 T00740012  RH  065%=      5-min Rain = 0
KMC4 141929Z 13008G13KT 07/01 A3027 RMK A01 T00720013  RH  066%=      5-min Rain = 0
KMC4 141930Z 13012KT 08/02 A3027 RMK A01 T00750017  RH  067%=      5-min Rain = 0
KMC4 141931Z 13010KT 08/02 A3027 RMK A01 T00760016  RH  065%=      5-min Rain = 0
KMC4 141932Z 15012KT 08/02 A3027 RMK A01 T00760015  RH  065%=      5-min Rain = 0
KMC4 141933Z 14014KT 08/02 A3027 RMK A01 T00770016  RH  066%=      5-min Rain = 0
KMC4 141934Z 15013KT 08/02 A3027 RMK A01 T00780015  RH  065%=      5-min Rain = 0
KMC4 141935Z 15012KT 08/02 A3027 RMK A01 T00770015  RH  065%=      5-min Rain = 0
KMC4 141936Z 14010KT 08/02 A3027 RMK A01 T00770016  RH  065%=      5-min Rain = 0
KMC4 141937Z 13012KT 08/02 A3027 RMK A01 T00790017  RH  065%=      5-min Rain = 0
KMC4 141938Z 14011KT 08/02 A3027 RMK A01 T00800017  RH  064%=      5-min Rain = 0
KMC4 141939Z 14012KT 08/02 A3027 RMK A01 T00810017  RH  064%=      5-min Rain = 0
KMC4 141940Z 15009KT 08/02 A3026 RMK A01 T00810016  RH  063%=      5-min Rain = 0
KMC4 141941Z 14011KT 08/02 A3026 RMK A01 T00820017  RH  064%=      5-min Rain = 0
KMC4 141942Z 13011KT 08/02 A3026 RMK A01 T00820017  RH  063%=      5-min Rain = 0
KMC4 141943Z 13010KT 08/01 A3026 RMK A01 T00800014  RH  063%=      5-min Rain = 0
KMC4 141944Z 14013KT 08/02 A3026 RMK A01 T00790017  RH  065%=      5-min Rain = 0
KMC4 141945Z 15013KT 08/02 A3026 RMK A01 T00800016  RH  064%=      5-min Rain = 0
KMC4 141946Z 15011KT 08/02 A3026 RMK A01 T00800017  RH  064%=      5-min Rain = 0
KMC4 141947Z 12011KT 08/02 A3026 RMK A01 T00800016  RH  064%=      5-min Rain = 0
KMC4 141948Z 14011KT 08/02 A3026 RMK A01 T00790016  RH  064%=      5-min Rain = 0
KMC4 141949Z 16014KT 08/02 A3026 RMK A01 T00790016  RH  064%=      5-min Rain = 0
KMC4 141950Z 15013KT 08/02 A3026 RMK A01 T00790016  RH  064%=      5-min Rain = 0
KMC4 141951Z 13011KT 08/02 A3026 RMK A01 T00790015  RH  064%=      5-min Rain = 0
KMC4 141952Z 14011KT 08/02 A3026 RMK A01 T00790016  RH  064%=      5-min Rain = 0
KMC4 141953Z 12011KT 08/02 A3026 RMK A01 T00790016  RH  064%=      5-min Rain = 0
KMC4 141954Z 12010KT 08/02 A3026 RMK A01 T00810018  RH  064%=      5-min Rain = 0
KMC4 141955Z 12013KT 08/02 A3026 RMK A01 T00830017  RH  063%=      5-min Rain = 0
KMC4 141956Z 12013KT 08/02 A3026 RMK A01 T00820017  RH  063%=      5-min Rain = 0
KMC4 141957Z 13012KT 08/02 A3025 RMK A01 T00830015  RH  062%=      5-min Rain = 0
KMC4 141958Z 13015KT 08/01 A3025 RMK A01 T00810014  RH  063%=      5-min Rain = 0
KMC4 141959Z 13014KT 08/02 A3025 RMK A01 T00800016  RH  064%=      5-min Rain = 0
KMC4 142000Z 14010KT 08/01 A3025 RMK A01 T00800014  RH  063%=      5-min Rain = 0
KMC4 142001Z 14008KT 08/01 A3025 RMK A01 T00790014  RH  064%=      5-min Rain = 0
KMC4 142002Z 12013KT 08/02 A3025 RMK A01 T00810017  RH  064%=      5-min Rain = 0
KMC4 142003Z 13012KT 08/01 A3025 RMK A01 T00790014  RH  064%=      5-min Rain = 0
KMC4 142004Z 14014KT 08/02 A3025 RMK A01 T00800017  RH  064%=      5-min Rain = 0
KMC4 142005Z 13013KT 08/02 A3025 RMK A01 T00820015  RH  063%=      5-min Rain = 0
KMC4 142006Z 12011KT 08/01 A3025 RMK A01 T00800014  RH  063%=      5-min Rain = 0
KMC4 142007Z 14011KT 08/02 A3025 RMK A01 T00800016  RH  064%=      5-min Rain = 0
KMC4 142008Z 15010KT 08/02 A3025 RMK A01 T00810017  RH  064%=      5-min Rain = 0
KMC4 142009Z 16012KT 08/02 A3025 RMK A01 T00810016  RH  063%=      5-min Rain = 0
KMC4 142010Z 14011KT 08/02 A3025 RMK A01 T00810016  RH  063%=      5-min Rain = 0
KMC4 142011Z 12012KT 08/02 A3025 RMK A01 T00830018  RH  063%=      5-min Rain = 0
KMC4 142012Z 12010KT 08/02 A3024 RMK A01 T00840016  RH  062%=      5-min Rain = 0
KMC4 142013Z 13010KT 08/02 A3024 RMK A01 T00820016  RH  063%=      5-min Rain = 0
KMC4 142014Z 12010KT 08/02 A3024 RMK A01 T00830017  RH  063%=      5-min Rain = 0
KMC4 142015Z 14013KT 09/02 A3024 RMK A01 T00850019  RH  063%=      5-min Rain = 0
KMC4 142016Z 14012KT 09/02 A3024 RMK A01 T00870018  RH  062%=      5-min Rain = 0
KMC4 142017Z 14012KT 09/02 A3024 RMK A01 T00850015  RH  061%=      5-min Rain = 0
KMC4 142018Z 14010KT 08/02 A3024 RMK A01 T00840015  RH  062%=      5-min Rain = 0
KMC4 142019Z 14015KT 08/02 A3024 RMK A01 T00840017  RH  063%=      5-min Rain = 0
KMC4 142020Z 14013KT 09/02 A3024 RMK A01 T00860018  RH  062%=      5-min Rain = 0
KMC4 142021Z 14015KT 09/02 A3024 RMK A01 T00870017  RH  061%=      5-min Rain = 0
KMC4 142022Z 14012KT 09/02 A3024 RMK A01 T00860015  RH  061%=      5-min Rain = 0
KMC4 142023Z 14012KT 08/02 A3024 RMK A01 T00840015  RH  062%=      5-min Rain = 0
KMC4 142024Z 13010KT 08/02 A3024 RMK A01 T00840017  RH  063%=      5-min Rain = 0
KMC4 142025Z 13013KT 09/02 A3024 RMK A01 T00850018  RH  062%=      5-min Rain = 0
KMC4 142026Z 13012KT 09/02 A3024 RMK A01 T00860017  RH  062%=      5-min Rain = 0
KMC4 142027Z 15013KT 09/02 A3023 RMK A01 T00880019  RH  062%=      5-min Rain = 0
KMC4 142028Z 14010KT 09/02 A3023 RMK A01 T00880017  RH  061%=      5-min Rain = 0
KMC4 142029Z 13010KT 09/02 A3023 RMK A01 T00860017  RH  062%=      5-min Rain = 0
KMC4 142030Z 11009KT 09/02 A3023 RMK A01 T00860017  RH  062%=      5-min Rain = 0
KMC4 142031Z 14011KT 08/02 A3023 RMK A01 T00840017  RH  062%=      5-min Rain = 0
KMC4 142032Z 15012KT 09/02 A3023 RMK A01 T00860019  RH  062%=      5-min Rain = 0
KMC4 142033Z 14013KT 09/02 A3023 RMK A01 T00870017  RH  062%=      5-min Rain = 0
KMC4 142034Z 13014KT 09/02 A3023 RMK A01 T00870017  RH  062%=      5-min Rain = 0
KMC4 142035Z 12011KT 09/02 A3023 RMK A01 T00870018  RH  062%=      5-min Rain = 0
KMC4 142036Z 13010KT 09/02 A3023 RMK A01 T00860016  RH  061%=      5-min Rain = 0
KMC4 142037Z 15012G17KT 09/02 A3023 RMK A01 T00850017  RH  062%=      5-min Rain = 0
KMC4 142038Z 14014KT 09/02 A3023 RMK A01 T00890019  RH  062%=      5-min Rain = 0
KMC4 142039Z 13012KT 09/02 A3023 RMK A01 T00900017  RH  060%=      5-min Rain = 0
KMC4 142040Z 14013KT 09/02 A3023 RMK A01 T00890017  RH  061%=      5-min Rain = 0
KMC4 142041Z 13013KT 09/02 A3023 RMK A01 T00890017  RH  061%=      5-min Rain = 0
KMC4 142042Z 12010KT 09/02 A3023 RMK A01 T00880016  RH  061%=      5-min Rain = 0
KMC4 142043Z 13008KT 09/02 A3023 RMK A01 T00860016  RH  061%=      5-min Rain = 0
KMC4 142044Z 13010KT 09/02 A3023 RMK A01 T00860017  RH  062%=      5-min Rain = 0
KMC4 142045Z 13012KT 09/02 A3022 RMK A01 T00880018  RH  061%=      5-min Rain = 0
KMC4 142046Z 13012KT 09/02 A3022 RMK A01 T00890018  RH  061%=      5-min Rain = 0
KMC4 142047Z 14013KT 09/02 A3022 RMK A01 T00900018  RH  060%=      5-min Rain = 0
KMC4 142048Z 15011KT 09/02 A3022 RMK A01 T00900017  RH  060%=      5-min Rain = 0
KMC4 142049Z 15011KT 09/02 A3022 RMK A01 T00890018  RH  061%=      5-min Rain = 0
KMC4 142050Z 13012KT 09/02 A3022 RMK A01 T00900019  RH  061%=      5-min Rain = 0
KMC4 142051Z 13011KT 09/02 A3022 RMK A01 T00900018  RH  060%=      5-min Rain = 0
KMC4 142052Z 12011KT 09/02 A3022 RMK A01 T00890018  RH  061%=      5-min Rain = 0
KMC4 142053Z 11011KT 09/02 A3022 RMK A01 T00890018  RH  061%=      5-min Rain = 0
KMC4 142054Z 12010KT 09/02 A3022 RMK A01 T00880017  RH  061%=      5-min Rain = 0
KMC4 142055Z 13011KT 09/02 A3022 RMK A01 T00890018  RH  061%=      5-min Rain = 0
KMC4 142056Z 16011KT 09/02 A3022 RMK A01 T00900018  RH  061%=      5-min Rain = 0
KMC4 142057Z 16012KT 09/02 A3022 RMK A01 T00900018  RH  061%=      5-min Rain = 0
KMC4 142058Z 15012KT 09/02 A3022 RMK A01 T00920020  RH  061%=      5-min Rain = 0
KMC4 142059Z 13009KT 09/02 A3022 RMK A01 T00930019  RH  060%=      5-min Rain = 0
KMC4 142100Z 14010KT 09/02 A3022 RMK A01 T00930021  RH  061%=      5-min Rain = 0
KMC4 142101Z 15011KT 10/02 A3021 RMK A01 T00950022  RH  060%=      5-min Rain = 0
KMC4 142102Z 16010KT 09/02 A3021 RMK A01 T00940020  RH  060%=      5-min Rain = 0
KMC4 142103Z 14011KT 09/02 A3021 RMK A01 T00930019  RH  060%=      5-min Rain = 0
KMC4 142104Z 13010KT 10/02 A3021 RMK A01 T00950022  RH  061%=      5-min Rain = 0
KMC4 142105Z 12009G14KT 10/02 A3021 RMK A01 T00970022  RH  060%=      5-min Rain = 0
KMC4 142106Z 12013KT 10/02 A3021 RMK A01 T00970021  RH  059%=      5-min Rain = 0
KMC4 142107Z 12010KT 10/02 A3021 RMK A01 T00960019  RH  058%=      5-min Rain = 0
KMC4 142108Z 14010KT 10/02 A3021 RMK A01 T00950019  RH  059%=      5-min Rain = 0
KMC4 142109Z 14012KT 10/02 A3021 RMK A01 T00970022  RH  060%=      5-min Rain = 0
KMC4 142110Z 14012KT 10/02 A3021 RMK A01 T00970020  RH  059%=      5-min Rain = 0
KMC4 142111Z 13012KT 10/02 A3021 RMK A01 T00970021  RH  059%=      5-min Rain = 0
KMC4 142112Z 13010KT 10/02 A3021 RMK A01 T00990023  RH  059%=      5-min Rain = 0
KMC4 142113Z 13009KT 10/02 A3021 RMK A01 T00990020  RH  058%=      5-min Rain = 0
KMC4 142114Z 13009KT 10/02 A3021 RMK A01 T00980023  RH  060%=      5-min Rain = 0
KMC4 142115Z 12015KT 10/02 A302 RMK A01 T01000023  RH  059%=      5-min Rain = 0
KMC4 142116Z 14013KT 10/02 A302 RMK A01 T01000021  RH  058%=      5-min Rain = 0
KMC4 142117Z 15011KT 10/02 A302 RMK A01 T00990021  RH  058%=      5-min Rain = 0
KMC4 142118Z 16011KT 10/02 A302 RMK A01 T00980019  RH  058%=      5-min Rain = 0
KMC4 142119Z 15010KT 10/02 A302 RMK A01 T00970020  RH  059%=      5-min Rain = 0
KMC4 142120Z 15012KT 10/02 A302 RMK A01 T00980021  RH  059%=      5-min Rain = 0
KMC4 142121Z 12012KT 10/02 A302 RMK A01 T00990022  RH  059%=      5-min Rain = 0
KMC4 142122Z 12013KT 10/02 A302 RMK A01 T01030023  RH  058%=      5-min Rain = 0
KMC4 142123Z 13012KT 10/02 A302 RMK A01 T01020020  RH  057%=      5-min Rain = 0
KMC4 142124Z 13012KT 10/02 A302 RMK A01 T00990018  RH  057%=      5-min Rain = 0
KMC4 142125Z 12012KT 10/02 A302 RMK A01 T00980020  RH  058%=      5-min Rain = 0
KMC4 142126Z 12011KT 10/02 A302 RMK A01 T01000021  RH  058%=      5-min Rain = 0
KMC4 142127Z 14012KT 10/02 A302 RMK A01 T01000020  RH  058%=      5-min Rain = 0
KMC4 142128Z 12010KT 10/02 A302 RMK A01 T01020023  RH  058%=      5-min Rain = 0
KMC4 142129Z 13010G15KT 10/02 A302 RMK A01 T01020021  RH  057%=      5-min Rain = 0
KMC4 142130Z 13014KT 10/02 A302 RMK A01 T01020021  RH  057%=      5-min Rain = 0
KMC4 142131Z 14011KT 10/02 A302 RMK A01 T01010020  RH  057%=      5-min Rain = 0
KMC4 142132Z 14009KT 10/02 A302 RMK A01 T01010020  RH  057%=      5-min Rain = 0
KMC4 142133Z 13011G16KT 10/02 A302 RMK A01 T01020022  RH  057%=      5-min Rain = 0
KMC4 142134Z 13016KT 10/02 A302 RMK A01 T01040021  RH  056%=      5-min Rain = 0
KMC4 142135Z 12013KT 10/02 A3019 RMK A01 T01040021  RH  056%=      5-min Rain = 0
KMC4 142136Z 12013KT 10/02 A3019 RMK A01 T01040020  RH  056%=      5-min Rain = 0
KMC4 142137Z 14013KT 10/02 A3019 RMK A01 T01040022  RH  057%=      5-min Rain = 0
KMC4 142138Z 15011KT 11/02 A3019 RMK A01 T01050021  RH  056%=      5-min Rain = 0
KMC4 142139Z 13013KT 11/02 A3019 RMK A01 T01050021  RH  056%=      5-min Rain = 0
KMC4 142140Z 13011KT 10/02 A3019 RMK A01 T01040020  RH  056%=      5-min Rain = 0
KMC4 142141Z 14013KT 10/02 A3019 RMK A01 T01040021  RH  056%=      5-min Rain = 0
KMC4 142142Z 14012KT 11/02 A3019 RMK A01 T01050022  RH  056%=      5-min Rain = 0
KMC4 142143Z 14011KT 11/02 A3019 RMK A01 T01060022  RH  056%=      5-min Rain = 0
KMC4 142144Z 13011KT 11/02 A3019 RMK A01 T01070022  RH  056%=      5-min Rain = 0
KMC4 142145Z 14014KT 11/02 A3019 RMK A01 T01070022  RH  056%=      5-min Rain = 0
KMC4 142146Z 14013KT 11/02 A3019 RMK A01 T01080022  RH  055%=      5-min Rain = 0
KMC4 142147Z 14013KT 11/02 A3019 RMK A01 T01080022  RH  055%=      5-min Rain = 0
KMC4 142148Z 13012KT 11/02 A3019 RMK A01 T01080022  RH  055%=      5-min Rain = 0
KMC4 142149Z 14010KT 11/02 A3019 RMK A01 T01090022  RH  055%=      5-min Rain = 0
KMC4 142150Z 15011KT 11/02 A3019 RMK A01 T01090023  RH  056%=      5-min Rain = 0
KMC4 142151Z 12012G17KT 11/02 A3019 RMK A01 T01100024  RH  055%=      5-min Rain = 0
KMC4 142152Z 13013KT 11/02 A3019 RMK A01 T01100023  RH  055%=      5-min Rain = 0
KMC4 142153Z 14014KT 11/02 A3019 RMK A01 T01090022  RH  055%=      5-min Rain = 0
KMC4 142154Z 13013KT 11/02 A3019 RMK A01 T01090022  RH  055%=      5-min Rain = 0
KMC4 142155Z 14013KT 11/02 A3019 RMK A01 T01090023  RH  055%=      5-min Rain = 0
KMC4 142156Z 13014KT 11/02 A3019 RMK A01 T01100022  RH  055%=      5-min Rain = 0
KMC4 142157Z 13013KT 11/02 A3018 RMK A01 T01100022  RH  054%=      5-min Rain = 0
KMC4 142158Z 14012KT 11/02 A3018 RMK A01 T01120024  RH  054%=      5-min Rain = 0
KMC4 142159Z 14011KT 12/03 A3018 RMK A01 T01150026  RH  054%=      5-min Rain = 0
KMC4 142200Z 14014KT 12/03 A3018 RMK A01 T01180026  RH  053%=      5-min Rain = 0
KMC4 142201Z 13015KT 12/02 A3018 RMK A01 T01180023  RH  052%=      5-min Rain = 0
KMC4 142202Z 13012KT 12/02 A3018 RMK A01 T01150022  RH  053%=      5-min Rain = 0
KMC4 142203Z 14012KT 11/02 A3018 RMK A01 T01140023  RH  054%=      5-min Rain = 0
KMC4 142204Z 14011KT 11/02 A3018 RMK A01 T01140023  RH  053%=      5-min Rain = 0
KMC4 142205Z 14013KT 11/02 A3018 RMK A01 T01140023  RH  054%=      5-min Rain = 0
KMC4 142206Z 13012KT 12/02 A3018 RMK A01 T01150024  RH  054%=      5-min Rain = 0
KMC4 142207Z 14012KT 12/03 A3018 RMK A01 T01160025  RH  053%=      5-min Rain = 0
KMC4 142208Z 14011KT 12/02 A3018 RMK A01 T01160024  RH  053%=      5-min Rain = 0
KMC4 142209Z 14010KT 12/03 A3018 RMK A01 T01160025  RH  054%=      5-min Rain = 0
KMC4 142210Z 14012KT 12/03 A3018 RMK A01 T01170026  RH  054%=      5-min Rain = 0
KMC4 142211Z 15010KT 12/03 A3018 RMK A01 T01180025  RH  053%=      5-min Rain = 0
KMC4 142212Z 14013G18KT 12/03 A3018 RMK A01 T01180025  RH  053%=      5-min Rain = 0
KMC4 142213Z 14016KT 12/02 A3018 RMK A01 T01180023  RH  052%=      5-min Rain = 0
KMC4 142214Z 14014KT 12/02 A3018 RMK A01 T01180023  RH  052%=      5-min Rain = 0
KMC4 142215Z 13013G18KT 12/02 A3018 RMK A01 T01170023  RH  053%=      5-min Rain = 0
KMC4 142216Z 14016KT 12/02 A3018 RMK A01 T01170023  RH  052%=      5-min Rain = 0
KMC4 142217Z 13015KT 12/02 A3018 RMK A01 T01170023  RH  052%=      5-min Rain = 0
KMC4 142218Z 14013KT 12/02 A3018 RMK A01 T01160022  RH  052%=      5-min Rain = 0
KMC4 142219Z 13015KT 12/02 A3018 RMK A01 T01160023  RH  053%=      5-min Rain = 0
KMC4 142220Z 14014KT 12/02 A3018 RMK A01 T01160023  RH  053%=      5-min Rain = 0
KMC4 142221Z 14013KT 12/02 A3018 RMK A01 T01160023  RH  053%=      5-min Rain = 0
KMC4 142222Z 14013KT 12/02 A3018 RMK A01 T01170024  RH  053%=      5-min Rain = 0
KMC4 142223Z 14015KT 12/02 A3018 RMK A01 T01190024  RH  052%=      5-min Rain = 0
KMC4 142224Z 13014KT 12/02 A3018 RMK A01 T01190024  RH  052%=      5-min Rain = 0
KMC4 142225Z 13013KT 12/03 A3018 RMK A01 T01190025  RH  052%=      5-min Rain = 0
KMC4 142226Z 13013KT 12/03 A3018 RMK A01 T01200025  RH  052%=      5-min Rain = 0
KMC4 142227Z 13015KT 12/02 A3017 RMK A01 T01200024  RH  052%=      5-min Rain = 0
KMC4 142228Z 14017KT 12/02 A3017 RMK A01 T01190024  RH  052%=      5-min Rain = 0
KMC4 142229Z 13015KT 12/02 A3017 RMK A01 T01190024  RH  052%=      5-min Rain = 0
KMC4 142230Z 13016KT 12/02 A3017 RMK A01 T01190024  RH  052%=      5-min Rain = 0
KMC4 142231Z 13015KT 12/02 A3017 RMK A01 T01190024  RH  052%=      5-min Rain = 0
KMC4 142232Z 14013KT 12/02 A3017 RMK A01 T01190024  RH  052%=      5-min Rain = 0
KMC4 142233Z 13014KT 12/02 A3017 RMK A01 T01200024  RH  052%=      5-min Rain = 0
KMC4 142234Z 13014KT 12/03 A3017 RMK A01 T01200025  RH  052%=      5-min Rain = 0
KMC4 142235Z 12013KT 12/02 A3017 RMK A01 T01200024  RH  052%=      5-min Rain = 0
KMC4 142236Z 12012KT 12/03 A3017 RMK A01 T01190025  RH  052%=      5-min Rain = 0
KMC4 142237Z 13012KT 12/03 A3017 RMK A01 T01200025  RH  052%=      5-min Rain = 0
KMC4 142238Z 14012KT 12/03 A3017 RMK A01 T01200025  RH  052%=      5-min Rain = 0
KMC4 142239Z 14013KT 12/03 A3017 RMK A01 T01220025  RH  051%=      5-min Rain = 0
KMC4 142240Z 14013KT 12/02 A3017 RMK A01 T01210023  RH  051%=      5-min Rain = 0
KMC4 142241Z 14017KT 12/03 A3017 RMK A01 T01220025  RH  051%=      5-min Rain = 0
KMC4 142242Z 14016KT 12/02 A3017 RMK A01 T01220024  RH  051%=      5-min Rain = 0
KMC4 142243Z 14013KT 12/02 A3017 RMK A01 T01210023  RH  051%=      5-min Rain = 0
KMC4 142244Z 15014KT 12/02 A3017 RMK A01 T01210024  RH  052%=      5-min Rain = 0
KMC4 142245Z 15015KT 12/02 A3017 RMK A01 T01220023  RH  051%=      5-min Rain = 0
KMC4 142246Z 15015KT 12/02 A3017 RMK A01 T01220023  RH  051%=      5-min Rain = 0
KMC4 142247Z 15014KT 12/02 A3017 RMK A01 T01210023  RH  051%=      5-min Rain = 0
KMC4 142248Z 15013KT 12/02 A3017 RMK A01 T01200022  RH  051%=      5-min Rain = 0
KMC4 142249Z 14012KT 12/02 A3017 RMK A01 T01200023  RH  051%=      5-min Rain = 0
KMC4 142250Z 14012KT 12/03 A3017 RMK A01 T01220025  RH  052%=      5-min Rain = 0
KMC4 142251Z 14011KT 12/02 A3017 RMK A01 T01230024  RH  051%=      5-min Rain = 0
KMC4 142252Z 13014KT 12/03 A3017 RMK A01 T01220025  RH  052%=      5-min Rain = 0
KMC4 142253Z 13015KT 12/02 A3017 RMK A01 T01230024  RH  051%=      5-min Rain = 0
KMC4 142254Z 13014KT 12/02 A3017 RMK A01 T01210024  RH  051%=      5-min Rain = 0
KMC4 142255Z 14011KT 12/03 A3017 RMK A01 T01210025  RH  052%=      5-min Rain = 0
KMC4 142256Z 15012KT 12/03 A3017 RMK A01 T01220026  RH  052%=      5-min Rain = 0
KMC4 142257Z 13011KT 12/02 A3017 RMK A01 T01230024  RH  051%=      5-min Rain = 0
KMC4 142258Z 13011KT 12/03 A3017 RMK A01 T01220025  RH  051%=      5-min Rain = 0
KMC4 142259Z 13013KT 12/03 A3017 RMK A01 T01220025  RH  052%=      5-min Rain = 0
KMC4 142300Z 13012KT 12/03 A3017 RMK A01 T01220025  RH  051%=      5-min Rain = 0
KMC4 142301Z 14014KT 12/02 A3017 RMK A01 T01220024  RH  051%=      5-min Rain = 0
KMC4 142302Z 14012KT 12/02 A3017 RMK A01 T01220024  RH  051%=      5-min Rain = 0
KMC4 142303Z 14011KT 12/03 A3017 RMK A01 T01220026  RH  052%=      5-min Rain = 0
KMC4 142304Z 13012KT 12/03 A3017 RMK A01 T01230026  RH  051%=      5-min Rain = 0
KMC4 142305Z 12014KT 12/03 A3017 RMK A01 T01230025  RH  051%=      5-min Rain = 0
KMC4 142306Z 12014KT 12/03 A3017 RMK A01 T01220025  RH  051%=      5-min Rain = 0
KMC4 142307Z 13014KT 12/02 A3017 RMK A01 T01220024  RH  051%=      5-min Rain = 0
KMC4 142308Z 13015KT 12/03 A3016 RMK A01 T01220025  RH  052%=      5-min Rain = 0
KMC4 142309Z 13014KT 12/03 A3016 RMK A01 T01220025  RH  051%=      5-min Rain = 0
KMC4 142310Z 13013KT 12/03 A3016 RMK A01 T01210025  RH  052%=      5-min Rain = 0
KMC4 142311Z 13012G17KT 12/03 A3016 RMK A01 T01210025  RH  052%=      5-min Rain = 0
KMC4 142312Z 14014KT 12/03 A3016 RMK A01 T01220027  RH  052%=      5-min Rain = 0
KMC4 142313Z 13014KT 12/03 A3016 RMK A01 T01230026  RH  052%=      5-min Rain = 0
KMC4 142314Z 13016KT 12/03 A3016 RMK A01 T01230025  RH  051%=      5-min Rain = 0
KMC4 142315Z 13017KT 12/03 A3016 RMK A01 T01220025  RH  051%=      5-min Rain = 0
KMC4 142316Z 13015KT 12/02 A3016 RMK A01 T01220024  RH  051%=      5-min Rain = 0
KMC4 142317Z 13015KT 12/02 A3016 RMK A01 T01210024  RH  052%=      5-min Rain = 0
KMC4 142318Z 13014KT 12/02 A3016 RMK A01 T01200024  RH  052%=      5-min Rain = 0
KMC4 142319Z 14014KT 12/03 A3016 RMK A01 T01200025  RH  052%=      5-min Rain = 0
KMC4 142320Z 14014KT 12/03 A3016 RMK A01 T01210025  RH  052%=      5-min Rain = 0
KMC4 142321Z 12013KT 12/03 A3016 RMK A01 T01210026  RH  052%=      5-min Rain = 0
KMC4 142322Z 12016KT 12/03 A3016 RMK A01 T01220026  RH  052%=      5-min Rain = 0
KMC4 142323Z 13015KT 12/03 A3016 RMK A01 T01210025  RH  052%=      5-min Rain = 0
KMC4 142324Z 13015KT 12/03 A3016 RMK A01 T01210025  RH  052%=      5-min Rain = 0
KMC4 142325Z 13014KT 12/03 A3016 RMK A01 T01200025  RH  052%=      5-min Rain = 0
KMC4 142326Z 14014KT 12/03 A3016 RMK A01 T01200026  RH  052%=      5-min Rain = 0
KMC4 142327Z 14016KT 12/03 A3015 RMK A01 T01200025  RH  052%=      5-min Rain = 0
KMC4 142328Z 14015KT 12/03 A3015 RMK A01 T01200025  RH  052%=      5-min Rain = 0
KMC4 142329Z 13015KT 12/03 A3015 RMK A01 T01200026  RH  052%=      5-min Rain = 0
KMC4 142330Z 14016KT 12/03 A3016 RMK A01 T01210026  RH  052%=      5-min Rain = 0
KMC4 142331Z 14016KT 12/03 A3015 RMK A01 T01220026  RH  052%=      5-min Rain = 0
KMC4 142332Z 14015KT 12/03 A3016 RMK A01 T01220025  RH  052%=      5-min Rain = 0
KMC4 142333Z 14013KT 12/03 A3016 RMK A01 T01220026  RH  052%=      5-min Rain = 0
KMC4 142334Z 15014KT 12/03 A3016 RMK A01 T01210026  RH  052%=      5-min Rain = 0
KMC4 142335Z 14013KT 12/03 A3016 RMK A01 T01210025  RH  052%=      5-min Rain = 0
KMC4 142336Z 13014KT 12/03 A3016 RMK A01 T01210026  RH  052%=      5-min Rain = 0
KMC4 142337Z 13015KT 12/03 A3016 RMK A01 T01220025  RH  052%=      5-min Rain = 0
KMC4 142338Z 13016KT 12/03 A3015 RMK A01 T01210025  RH  052%=      5-min Rain = 0
KMC4 142339Z 13017KT 12/03 A3015 RMK A01 T01210025  RH  052%=      5-min Rain = 0
KMC4 142340Z 13015KT 12/02 A3015 RMK A01 T01200024  RH  052%=      5-min Rain = 0
KMC4 142341Z 13017KT 12/03 A3015 RMK A01 T01200025  RH  052%=      5-min Rain = 0
KMC4 142342Z 12014KT 12/03 A3015 RMK A01 T01200025  RH  052%=      5-min Rain = 0
KMC4 142343Z 13013KT 12/03 A3015 RMK A01 T01200026  RH  052%=      5-min Rain = 0
KMC4 142344Z 13014KT 12/03 A3015 RMK A01 T01200025  RH  052%=      5-min Rain = 0
KMC4 142345Z 13013KT 12/03 A3015 RMK A01 T01210025  RH  052%=      5-min Rain = 0
KMC4 142346Z 13015G20KT 12/03 A3015 RMK A01 T01210026  RH  052%=      5-min Rain = 0
KMC4 142347Z 13016KT 12/03 A3015 RMK A01 T01210026  RH  052%=      5-min Rain = 0
KMC4 142348Z 13014KT 12/03 A3015 RMK A01 T01210025  RH  052%=      5-min Rain = 0
KMC4 142349Z 13014KT 12/03 A3016 RMK A01 T01210026  RH  052%=      5-min Rain = 0
KMC4 142350Z 14013KT 12/03 A3016 RMK A01 T01210026  RH  052%=      5-min Rain = 0
KMC4 142351Z 13010KT 12/03 A3016 RMK A01 T01210027  RH  053%=      5-min Rain = 0
KMC4 142352Z 14013KT 12/03 A3016 RMK A01 T01210028  RH  053%=      5-min Rain = 0
KMC4 142353Z 14015KT 12/03 A3016 RMK A01 T01210026  RH  052%=      5-min Rain = 0
KMC4 142354Z 14015KT 12/03 A3016 RMK A01 T01210026  RH  052%=      5-min Rain = 0
KMC4 142355Z 14013KT 12/03 A3016 RMK A01 T01200026  RH  052%=      5-min Rain = 0
KMC4 142356Z 14013KT 12/03 A3016 RMK A01 T01200027  RH  053%=      5-min Rain = 0
KMC4 142357Z 13012KT 12/03 A3016 RMK A01 T01200028  RH  053%=      5-min Rain = 0
KMC4 142358Z 13013KT 12/03 A3016 RMK A01 T01200027  RH  053%=      5-min Rain = 0
KMC4 142359Z 13016KT 12/03 A3016 RMK A01 T01200027  RH  053%=      5-min Rain = 0
KMC4 150000Z 13014KT 12/03 A3016 RMK A01 T01190027  RH  053%=      5-min Rain = 0
KMC4 150001Z 13014KT 12/03 A3016 RMK A01 T01190026  RH  053%=      5-min Rain = 0
KMC4 150002Z 14013KT 12/03 A3016 RMK A01 T01190026  RH  053%=      5-min Rain = 0
KMC4 150003Z 14015KT 12/03 A3016 RMK A01 T01190027  RH  053%=      5-min Rain = 0
KMC4 150004Z 14015KT 12/03 A3016 RMK A01 T01190027  RH  053%=      5-min Rain = 0
KMC4 150005Z 14016KT 12/03 A3016 RMK A01 T01180027  RH  053%=      5-min Rain = 0
KMC4 150006Z 14017KT 12/03 A3016 RMK A01 T01180026  RH  053%=      5-min Rain = 0
KMC4 150007Z 14015KT 12/03 A3016 RMK A01 T01180027  RH  054%=      5-min Rain = 0
KMC4 150008Z 14016KT 12/03 A3016 RMK A01 T01180027  RH  054%=      5-min Rain = 0
KMC4 150009Z 14013KT 12/03 A3016 RMK A01 T01170027  RH  054%=      5-min Rain = 0
KMC4 150010Z 14018KT 12/03 A3016 RMK A01 T01170027  RH  054%=      5-min Rain = 0
KMC4 150011Z 14014KT 12/03 A3016 RMK A01 T01170027  RH  054%=      5-min Rain = 0
KMC4 150012Z 13016KT 12/03 A3016 RMK A01 T01160027  RH  054%=      5-min Rain = 0
KMC4 150013Z 13013KT 12/03 A3016 RMK A01 T01160027  RH  054%=      5-min Rain = 0
KMC4 150014Z 14014KT 12/03 A3016 RMK A01 T01160028  RH  055%=      5-min Rain = 0
KMC4 150015Z 13013KT 12/03 A3016 RMK A01 T01150028  RH  055%=      5-min Rain = 0
KMC4 150016Z 13011KT 12/03 A3016 RMK A01 T01150028  RH  055%=      5-min Rain = 0
KMC4 150017Z 14014KT 12/03 A3016 RMK A01 T01150029  RH  055%=      5-min Rain = 0
KMC4 150018Z 13012KT 12/03 A3016 RMK A01 T01150028  RH  055%=      5-min Rain = 0
KMC4 150019Z 14014KT 12/03 A3016 RMK A01 T01150028  RH  055%=      5-min Rain = 0
KMC4 150020Z 13014KT 12/03 A3016 RMK A01 T01150028  RH  055%=      5-min Rain = 0
KMC4 150021Z 14016KT 11/03 A3016 RMK A01 T01140028  RH  055%=      5-min Rain = 0
KMC4 150022Z 14013KT 12/03 A3016 RMK A01 T01150029  RH  055%=      5-min Rain = 0
KMC4 150023Z 14013KT 11/03 A3016 RMK A01 T01140029  RH  056%=      5-min Rain = 0
KMC4 150024Z 13014KT 11/03 A3016 RMK A01 T01140029  RH  056%=      5-min Rain = 0
KMC4 150025Z 13013KT 11/03 A3016 RMK A01 T01140029  RH  056%=      5-min Rain = 0
KMC4 150026Z 14014KT 11/03 A3016 RMK A01 T01130029  RH  056%=      5-min Rain = 0
KMC4 150027Z 14013KT 11/03 A3016 RMK A01 T01130029  RH  056%=      5-min Rain = 0
KMC4 150028Z 13012KT 11/03 A3016 RMK A01 T01130029  RH  056%=      5-min Rain = 0
KMC4 150029Z 14014KT 11/03 A3016 RMK A01 T01130029  RH  056%=      5-min Rain = 0
KMC4 150030Z 13015KT 11/03 A3016 RMK A01 T01120029  RH  057%=      5-min Rain = 0
KMC4 150031Z 13014KT 11/03 A3016 RMK A01 T01120030  RH  057%=      5-min Rain = 0
KMC4 150032Z 13014KT 11/03 A3017 RMK A01 T01120030  RH  057%=      5-min Rain = 0
KMC4 150033Z 13014KT 11/03 A3016 RMK A01 T01120030  RH  057%=      5-min Rain = 0
KMC4 150034Z 14015KT 11/03 A3017 RMK A01 T01110030  RH  057%=      5-min Rain = 0
KMC4 150035Z 14015KT 11/03 A3017 RMK A01 T01110030  RH  057%=      5-min Rain = 0
KMC4 150036Z 14017KT 11/03 A3017 RMK A01 T01110030  RH  057%=      5-min Rain = 0
KMC4 150037Z 13013KT 11/03 A3017 RMK A01 T01110030  RH  057%=      5-min Rain = 0
KMC4 150038Z 14017KT 11/03 A3017 RMK A01 T01110030  RH  058%=      5-min Rain = 0
KMC4 150039Z 14015KT 11/03 A3017 RMK A01 T01100030  RH  058%=      5-min Rain = 0
KMC4 150040Z 14014KT 11/03 A3017 RMK A01 T01100030  RH  058%=      5-min Rain = 0
KMC4 150041Z 14013KT 11/03 A3017 RMK A01 T01100030  RH  058%=      5-min Rain = 0
KMC4 150042Z 14013KT 11/03 A3017 RMK A01 T01100030  RH  058%=      5-min Rain = 0
KMC4 150043Z 14012KT 11/03 A3017 RMK A01 T01100030  RH  058%=      5-min Rain = 0
KMC4 150044Z 14012KT 11/03 A3017 RMK A01 T01090030  RH  058%=      5-min Rain = 0
KMC4 150045Z 14011KT 11/03 A3017 RMK A01 T01080030  RH  059%=      5-min Rain = 0
KMC4 150046Z 14013KT 11/03 A3017 RMK A01 T01080031  RH  059%=      5-min Rain = 0
KMC4 150047Z 14013KT 11/03 A3017 RMK A01 T01080031  RH  059%=      5-min Rain = 0
KMC4 150048Z 14013KT 11/03 A3017 RMK A01 T01070031  RH  059%=      5-min Rain = 0
KMC4 150049Z 14013KT 11/03 A3017 RMK A01 T01070031  RH  059%=      5-min Rain = 0
KMC4 150050Z 14011KT 11/03 A3017 RMK A01 T01070031  RH  059%=      5-min Rain = 0
KMC4 150051Z 13012KT 11/03 A3017 RMK A01 T01070031  RH  059%=      5-min Rain = 0
KMC4 150052Z 13012KT 11/03 A3017 RMK A01 T01070031  RH  059%=      5-min Rain = 0
KMC4 150053Z 13012KT 11/03 A3017 RMK A01 T01070031  RH  059%=      5-min Rain = 0
KMC4 150054Z 13011KT 11/03 A3017 RMK A01 T01060031  RH  060%=      5-min Rain = 0
KMC4 150055Z 13010KT 11/03 A3017 RMK A01 T01060031  RH  060%=      5-min Rain = 0
KMC4 150056Z 13011KT 11/03 A3017 RMK A01 T01050031  RH  060%=      5-min Rain = 0
KMC4 150057Z 13011KT 11/03 A3017 RMK A01 T01050031  RH  060%=      5-min Rain = 0
KMC4 150058Z 13010KT 11/03 A3017 RMK A01 T01050031  RH  060%=      5-min Rain = 0
KMC4 150059Z 14010KT 11/03 A3018 RMK A01 T01050031  RH  060%=      5-min Rain = 0
KMC4 150100Z 13012KT 10/03 A3018 RMK A01 T01040031  RH  061%=      5-min Rain = 0
KMC4 150101Z 13011KT 10/03 A3018 RMK A01 T01040031  RH  061%=      5-min Rain = 0
KMC4 150102Z 14013KT 10/03 A3018 RMK A01 T01040031  RH  060%=      5-min Rain = 0
KMC4 150103Z 13014KT 10/03 A3018 RMK A01 T01040031  RH  060%=      5-min Rain = 0
KMC4 150104Z 13012KT 10/03 A3018 RMK A01 T01040031  RH  060%=      5-min Rain = 0
KMC4 150105Z 13011KT 10/03 A3018 RMK A01 T01040031  RH  061%=      5-min Rain = 0
KMC4 150106Z 13013KT 10/03 A3018 RMK A01 T01040031  RH  061%=      5-min Rain = 0
KMC4 150107Z 13012KT 10/03 A3018 RMK A01 T01030031  RH  061%=      5-min Rain = 0
KMC4 150108Z 13012KT 10/03 A3018 RMK A01 T01040031  RH  061%=      5-min Rain = 0
KMC4 150109Z 13011KT 10/03 A3018 RMK A01 T01030031  RH  061%=      5-min Rain = 0
KMC4 150110Z 13011KT 10/03 A3018 RMK A01 T01030031  RH  061%=      5-min Rain = 0
KMC4 150111Z 13011KT 10/03 A3018 RMK A01 T01030032  RH  061%=      5-min Rain = 0
KMC4 150112Z 13012KT 10/03 A3018 RMK A01 T01020031  RH  061%=      5-min Rain = 0
KMC4 150113Z 13011KT 10/03 A3018 RMK A01 T01020031  RH  061%=      5-min Rain = 0
KMC4 150114Z 13011KT 10/03 A3018 RMK A01 T01020031  RH  062%=      5-min Rain = 0
KMC4 150115Z 13010KT 10/03 A3018 RMK A01 T01020032  RH  062%=      5-min Rain = 0
KMC4 150116Z 14011KT 10/03 A3018 RMK A01 T01010032  RH  062%=      5-min Rain = 0
KMC4 150117Z 14012KT 10/03 A3019 RMK A01 T01010032  RH  062%=      5-min Rain = 0
KMC4 150118Z 14012KT 10/03 A3019 RMK A01 T01010032  RH  062%=      5-min Rain = 0
KMC4 150119Z 14011KT 10/03 A3019 RMK A01 T01010032  RH  062%=      5-min Rain = 0
KMC4 150120Z 14012KT 10/03 A3019 RMK A01 T01000032  RH  062%=      5-min Rain = 0
KMC4 150121Z 14011KT 10/03 A3019 RMK A01 T01000032  RH  062%=      5-min Rain = 0
KMC4 150122Z 14011KT 10/03 A3019 RMK A01 T01000032  RH  062%=      5-min Rain = 0
KMC4 150123Z 13011KT 10/03 A3019 RMK A01 T00990032  RH  063%=      5-min Rain = 0
KMC4 150124Z 13012KT 10/03 A3019 RMK A01 T00990032  RH  063%=      5-min Rain = 0
KMC4 150125Z 14011KT 10/03 A3019 RMK A01 T00990032  RH  063%=      5-min Rain = 0
KMC4 150126Z 14011KT 10/03 A3019 RMK A01 T00990032  RH  063%=      5-min Rain = 0
KMC4 150127Z 14010KT 10/03 A3019 RMK A01 T00980032  RH  063%=      5-min Rain = 0
KMC4 150128Z 14010KT 10/03 A3019 RMK A01 T00980032  RH  063%=      5-min Rain = 0
KMC4 150129Z 14009KT 10/03 A3019 RMK A01 T00980032  RH  064%=      5-min Rain = 0
KMC4 150130Z 14011KT 10/03 A3019 RMK A01 T00970032  RH  064%=      5-min Rain = 0
KMC4 150131Z 13009KT 10/03 A3019 RMK A01 T00970032  RH  064%=      5-min Rain = 0
KMC4 150132Z 13009KT 10/03 A3019 RMK A01 T00970032  RH  064%=      5-min Rain = 0
KMC4 150133Z 13009KT 10/03 A3019 RMK A01 T00970031  RH  064%=      5-min Rain = 0
KMC4 150134Z 13008KT 10/03 A3019 RMK A01 T00970032  RH  064%=      5-min Rain = 0
KMC4 150135Z 12009KT 10/03 A3019 RMK A01 T00960032  RH  064%=      5-min Rain = 0
KMC4 150136Z 12008KT 10/03 A3019 RMK A01 T00960032  RH  064%=      5-min Rain = 0
KMC4 150137Z 13009KT 10/03 A3019 RMK A01 T00960032  RH  064%=      5-min Rain = 0
KMC4 150138Z 13008KT 10/03 A3019 RMK A01 T00960032  RH  064%=      5-min Rain = 0
KMC4 150139Z 13008KT 10/03 A3019 RMK A01 T00950032  RH  065%=      5-min Rain = 0
KMC4 150140Z 13009KT 10/03 A3019 RMK A01 T00950032  RH  065%=      5-min Rain = 0
KMC4 150141Z 13009KT 09/03 A3019 RMK A01 T00940032  RH  065%=      5-min Rain = 0
KMC4 150142Z 13008KT 09/03 A3019 RMK A01 T00940032  RH  065%=      5-min Rain = 0
KMC4 150143Z 13008KT 09/03 A3019 RMK A01 T00940033  RH  065%=      5-min Rain = 0
KMC4 150144Z 13009KT 09/03 A3019 RMK A01 T00930032  RH  066%=      5-min Rain = 0
KMC4 150145Z 13009KT 09/03 A3019 RMK A01 T00930032  RH  066%=      5-min Rain = 0
KMC4 150146Z 13009KT 09/03 A3019 RMK A01 T00930033  RH  066%=      5-min Rain = 0
KMC4 150147Z 14009KT 09/03 A302 RMK A01 T00930033  RH  066%=      5-min Rain = 0
KMC4 150148Z 14009KT 09/03 A302 RMK A01 T00930033  RH  066%=      5-min Rain = 0
KMC4 150149Z 14010KT 09/03 A302 RMK A01 T00920033  RH  066%=      5-min Rain = 0
KMC4 150150Z 14010KT 09/03 A302 RMK A01 T00920032  RH  066%=      5-min Rain = 0
KMC4 150151Z 14010KT 09/03 A302 RMK A01 T00920033  RH  066%=      5-min Rain = 0
KMC4 150152Z 13009KT 09/03 A302 RMK A01 T00920033  RH  067%=      5-min Rain = 0
KMC4 150153Z 13009KT 09/03 A302 RMK A01 T00910033  RH  067%=      5-min Rain = 0
KMC4 150154Z 13010KT 09/03 A302 RMK A01 T00900033  RH  067%=      5-min Rain = 0
KMC4 150155Z 13011KT 09/03 A302 RMK A01 T00910033  RH  067%=      5-min Rain = 0
KMC4 150156Z 13010KT 09/03 A302 RMK A01 T00910033  RH  067%=      5-min Rain = 0
KMC4 150157Z 13010KT 09/03 A3019 RMK A01 T00910033  RH  067%=      5-min Rain = 0
KMC4 150158Z 13010KT 09/03 A3019 RMK A01 T00910033  RH  067%=      5-min Rain = 0
KMC4 150159Z 13010KT 09/03 A3019 RMK A01 T00910033  RH  067%=      5-min Rain = 0
KMC4 150200Z 13009KT 09/03 A3019 RMK A01 T00900033  RH  067%=      5-min Rain = 0
KMC4 150201Z 13011KT 09/03 A3019 RMK A01 T00890033  RH  067%=      5-min Rain = 0
KMC4 150202Z 12011KT 09/03 A3019 RMK A01 T00900033  RH  067%=      5-min Rain = 0
KMC4 150203Z 13011KT 09/03 A3019 RMK A01 T00910033  RH  067%=      5-min Rain = 0
KMC4 150204Z 13009KT 09/03 A3018 RMK A01 T00910033  RH  067%=      5-min Rain = 0
KMC4 150205Z 13010KT 09/03 A3018 RMK A01 T00900033  RH  067%=      5-min Rain = 0
KMC4 150206Z 13011KT 09/03 A3018 RMK A01 T00890033  RH  068%=      5-min Rain = 0
KMC4 150207Z 13011KT 09/03 A3018 RMK A01 T00890033  RH  068%=      5-min Rain = 0
KMC4 150208Z 13011KT 09/03 A3019 RMK A01 T00890033  RH  068%=      5-min Rain = 0
KMC4 150209Z 13010KT 09/03 A3019 RMK A01 T00890033  RH  068%=      5-min Rain = 0
KMC4 150210Z 13011KT 09/03 A3019 RMK A01 T00890033  RH  068%=      5-min Rain = 0
KMC4 150211Z 13010KT 09/03 A3019 RMK A01 T00900033  RH  067%=      5-min Rain = 0
KMC4 150212Z 13011KT 09/03 A3019 RMK A01 T00900033  RH  067%=      5-min Rain = 0
KMC4 150213Z 13012KT 09/03 A3019 RMK A01 T00900033  RH  067%=      5-min Rain = 0
KMC4 150214Z 14012KT 09/03 A3019 RMK A01 T00910033  RH  067%=      5-min Rain = 0
KMC4 150215Z 13010KT 09/03 A3019 RMK A01 T00910034  RH  067%=      5-min Rain = 0
KMC4 150216Z 13010KT 09/03 A3019 RMK A01 T00920034  RH  067%=      5-min Rain = 0
KMC4 150217Z 14009KT 09/03 A302 RMK A01 T00910033  RH  067%=      5-min Rain = 0
KMC4 150218Z 13009KT 09/03 A302 RMK A01 T00900034  RH  068%=      5-min Rain = 0
KMC4 150219Z 13010KT 09/03 A302 RMK A01 T00900034  RH  068%=      5-min Rain = 0
KMC4 150220Z 14013KT 09/03 A302 RMK A01 T00900034  RH  068%=      5-min Rain = 0
KMC4 150221Z 13010KT 09/03 A302 RMK A01 T00910034  RH  068%=      5-min Rain = 0
KMC4 150222Z 13009KT 09/03 A302 RMK A01 T00910034  RH  067%=      5-min Rain = 0
KMC4 150223Z 13009KT 09/03 A302 RMK A01 T00900034  RH  068%=      5-min Rain = 0
KMC4 150224Z 13010KT 09/03 A302 RMK A01 T00900034  RH  068%=      5-min Rain = 0
KMC4 150225Z 12009KT 09/03 A302 RMK A01 T00900034  RH  068%=      5-min Rain = 0
KMC4 150226Z 13008KT 09/03 A302 RMK A01 T00900034  RH  068%=      5-min Rain = 0
KMC4 150227Z 12009KT 09/03 A302 RMK A01 T00890034  RH  068%=      5-min Rain = 0
KMC4 150228Z 12009KT 09/03 A302 RMK A01 T00880034  RH  069%=      5-min Rain = 0
KMC4 150229Z 12007KT 09/03 A302 RMK A01 T00880034  RH  069%=      5-min Rain = 0
KMC4 150230Z 12008KT 09/03 A302 RMK A01 T00880034  RH  069%=      5-min Rain = 0
KMC4 150231Z 12007KT 09/03 A302 RMK A01 T00880034  RH  069%=      5-min Rain = 0
KMC4 150232Z 13008KT 09/03 A302 RMK A01 T00880034  RH  069%=      5-min Rain = 0
KMC4 150233Z 12007KT 09/03 A302 RMK A01 T00880034  RH  069%=      5-min Rain = 0
KMC4 150234Z 13007KT 09/03 A302 RMK A01 T00880034  RH  069%=      5-min Rain = 0
KMC4 150235Z 12006KT 09/03 A302 RMK A01 T00870034  RH  069%=      5-min Rain = 0
KMC4 150236Z 12007KT 09/03 A302 RMK A01 T00870034  RH  069%=      5-min Rain = 0
KMC4 150237Z 12008KT 09/04 A302 RMK A01 T00870035  RH  069%=      5-min Rain = 0
KMC4 150238Z 12007KT 09/04 A302 RMK A01 T00880035  RH  069%=      5-min Rain = 0
KMC4 150239Z 13008KT 09/04 A302 RMK A01 T00870035  RH  070%=      5-min Rain = 0
KMC4 150240Z 12009KT 09/04 A302 RMK A01 T00870035  RH  070%=      5-min Rain = 0
KMC4 150241Z 13009KT 09/04 A302 RMK A01 T00870035  RH  070%=      5-min Rain = 0
KMC4 150242Z 12007KT 09/04 A302 RMK A01 T00870035  RH  070%=      5-min Rain = 0
KMC4 150243Z 13008KT 09/04 A302 RMK A01 T00860035  RH  070%=      5-min Rain = 0
KMC4 150244Z 13008KT 09/04 A302 RMK A01 T00860035  RH  070%=      5-min Rain = 0
KMC4 150245Z 13008KT 09/04 A302 RMK A01 T00850035  RH  071%=      5-min Rain = 0
KMC4 150246Z 13007KT 09/04 A302 RMK A01 T00850035  RH  071%=      5-min Rain = 0
KMC4 150247Z 13009G14KT 09/04 A302 RMK A01 T00850035  RH  071%=      5-min Rain = 0
KMC4 150248Z 14011KT 09/04 A302 RMK A01 T00850035  RH  071%=      5-min Rain = 0
KMC4 150249Z 13008KT 09/04 A302 RMK A01 T00860035  RH  070%=      5-min Rain = 0
KMC4 150250Z 13007KT 09/04 A302 RMK A01 T00860035  RH  070%=      5-min Rain = 0
KMC4 150251Z 13007KT 09/04 A302 RMK A01 T00860035  RH  071%=      5-min Rain = 0
KMC4 150252Z 13009KT 09/04 A3021 RMK A01 T00850035  RH  071%=      5-min Rain = 0
KMC4 150253Z 13009KT 09/04 A3021 RMK A01 T00850035  RH  071%=      5-min Rain = 0
KMC4 150254Z 12008KT 09/04 A3021 RMK A01 T00850035  RH  071%=      5-min Rain = 0
KMC4 150255Z 13007KT 09/04 A3021 RMK A01 T00850035  RH  071%=      5-min Rain = 0
KMC4 150256Z 13008KT 09/04 A3021 RMK A01 T00850035  RH  071%=      5-min Rain = 0
KMC4 150257Z 13008KT 09/04 A3021 RMK A01 T00850036  RH  071%=      5-min Rain = 0
KMC4 150258Z 13009KT 09/04 A3021 RMK A01 T00850036  RH  071%=      5-min Rain = 0
KMC4 150259Z 13007KT 09/04 A3021 RMK A01 T00850035  RH  071%=      5-min Rain = 0
KMC4 150300Z 14010KT 08/04 A3021 RMK A01 T00840035  RH  071%=      5-min Rain = 0
KMC4 150301Z 13011KT 08/04 A3021 RMK A01 T00840036  RH  071%=      5-min Rain = 0
KMC4 150302Z 14011KT 08/04 A3021 RMK A01 T00840035  RH  071%=      5-min Rain = 0
KMC4 150303Z 14010KT 09/04 A3021 RMK A01 T00850035  RH  071%=      5-min Rain = 0
KMC4 150304Z 14010KT 08/04 A3021 RMK A01 T00840035  RH  071%=      5-min Rain = 0
KMC4 150305Z 14010KT 08/04 A3021 RMK A01 T00840035  RH  071%=      5-min Rain = 0
KMC4 150306Z 14010KT 08/04 A3021 RMK A01 T00830035  RH  072%=      5-min Rain = 0
KMC4 150307Z 14011KT 08/04 A3021 RMK A01 T00820035  RH  072%=      5-min Rain = 0
KMC4 150308Z 14010KT 08/04 A3021 RMK A01 T00820035  RH  072%=      5-min Rain = 0
KMC4 150309Z 14010KT 08/04 A3021 RMK A01 T00830035  RH  072%=      5-min Rain = 0
KMC4 150310Z 13010KT 08/04 A3021 RMK A01 T00830035  RH  072%=      5-min Rain = 0
KMC4 150311Z 14012KT 08/04 A302 RMK A01 T00820035  RH  072%=      5-min Rain = 0
KMC4 150312Z 14011KT 08/04 A302 RMK A01 T00820035  RH  072%=      5-min Rain = 0
KMC4 150313Z 13011KT 08/04 A302 RMK A01 T00830035  RH  072%=      5-min Rain = 0
KMC4 150314Z 14009KT 08/04 A302 RMK A01 T00830035  RH  072%=      5-min Rain = 0
KMC4 150315Z 13011KT 08/04 A302 RMK A01 T00830035  RH  072%=      5-min Rain = 0
KMC4 150316Z 13011KT 08/04 A302 RMK A01 T00830035  RH  072%=      5-min Rain = 0
KMC4 150317Z 13009KT 08/04 A302 RMK A01 T00830035  RH  072%=      5-min Rain = 0
KMC4 150318Z 13010KT 08/04 A302 RMK A01 T00830035  RH  072%=      5-min Rain = 0
KMC4 150319Z 13009KT 08/04 A302 RMK A01 T00820035  RH  072%=      5-min Rain = 0
KMC4 150320Z 13008KT 08/04 A302 RMK A01 T00820035  RH  072%=      5-min Rain = 0
KMC4 150321Z 13006KT 08/04 A3021 RMK A01 T00820035  RH  072%=      5-min Rain = 0
KMC4 150322Z 13007KT 08/04 A3021 RMK A01 T00810035  RH  073%=      5-min Rain = 0
KMC4 150323Z 13009KT 08/04 A3021 RMK A01 T00810035  RH  073%=      5-min Rain = 0
KMC4 150324Z 12009KT 08/04 A3021 RMK A01 T00810035  RH  073%=      5-min Rain = 0
KMC4 150325Z 13009KT 08/04 A3021 RMK A01 T00810035  RH  072%=      5-min Rain = 0
KMC4 150326Z 13009KT 08/04 A3021 RMK A01 T00820035  RH  072%=      5-min Rain = 0
KMC4 150327Z 13009KT 08/03 A3021 RMK A01 T00820034  RH  072%=      5-min Rain = 0
KMC4 150328Z 13009KT 08/03 A3021 RMK A01 T00830034  RH  072%=      5-min Rain = 0
KMC4 150329Z 14008KT 08/03 A3021 RMK A01 T00830034  RH  071%=      5-min Rain = 0
KMC4 150330Z 13008KT 08/03 A3021 RMK A01 T00820034  RH  072%=      5-min Rain = 0
KMC4 150331Z 13007KT 08/03 A3021 RMK A01 T00810034  RH  072%=      5-min Rain = 0
KMC4 150332Z 12007KT 08/03 A3021 RMK A01 T00810034  RH  072%=      5-min Rain = 0
KMC4 150333Z 13009KT 08/03 A302 RMK A01 T00800034  RH  073%=      5-min Rain = 0
KMC4 150334Z 13010KT 08/03 A302 RMK A01 T00800034  RH  072%=      5-min Rain = 0
KMC4 150335Z 13009KT 08/03 A302 RMK A01 T00810034  RH  072%=      5-min Rain = 0
KMC4 150336Z 13008KT 08/03 A302 RMK A01 T00810033  RH  072%=      5-min Rain = 0
KMC4 150337Z 13009KT 08/03 A302 RMK A01 T00800033  RH  072%=      5-min Rain = 0
KMC4 150338Z 13009KT 08/03 A302 RMK A01 T00800034  RH  072%=      5-min Rain = 0
KMC4 150339Z 13010KT 08/03 A3021 RMK A01 T00800034  RH  072%=      5-min Rain = 0
KMC4 150340Z 13008KT 08/03 A3021 RMK A01 T00800033  RH  072%=      5-min Rain = 0
KMC4 150341Z 12009KT 08/03 A3021 RMK A01 T00800033  RH  072%=      5-min Rain = 0
KMC4 150342Z 13008KT 08/03 A3021 RMK A01 T00800033  RH  072%=      5-min Rain = 0
KMC4 150343Z 14010KT 08/03 A3021 RMK A01 T00800033  RH  072%=      5-min Rain = 0
KMC4 150344Z 13009KT 08/03 A3021 RMK A01 T00800033  RH  072%=      5-min Rain = 0
KMC4 150345Z 13010KT 08/03 A3021 RMK A01 T00800033  RH  072%=      5-min Rain = 0
KMC4 150346Z 13008KT 08/03 A3021 RMK A01 T00800032  RH  072%=      5-min Rain = 0
KMC4 150347Z 13007KT 08/03 A3021 RMK A01 T00800032  RH  072%=      5-min Rain = 0
KMC4 150348Z 13008KT 08/03 A3021 RMK A01 T00800033  RH  072%=      5-min Rain = 0
KMC4 150349Z 13008KT 08/03 A3021 RMK A01 T00790033  RH  072%=      5-min Rain = 0
KMC4 150350Z 13009KT 08/03 A3021 RMK A01 T00790032  RH  072%=      5-min Rain = 0
KMC4 150351Z 13009KT 08/03 A3021 RMK A01 T00800032  RH  072%=      5-min Rain = 0
KMC4 150352Z 13008KT 08/03 A3021 RMK A01 T00800032  RH  072%=      5-min Rain = 0
KMC4 150353Z 13009KT 08/03 A3021 RMK A01 T00790032  RH  072%=      5-min Rain = 0
KMC4 150354Z 13008KT 08/03 A3021 RMK A01 T00790032  RH  072%=      5-min Rain = 0
KMC4 150355Z 13009KT 08/03 A3021 RMK A01 T00790032  RH  072%=      5-min Rain = 0
KMC4 150356Z 14010KT 08/03 A3021 RMK A01 T00790032  RH  072%=      5-min Rain = 0
KMC4 150357Z 13009KT 08/03 A3021 RMK A01 T00790032  RH  072%=      5-min Rain = 0
KMC4 150358Z 14010KT 08/03 A3021 RMK A01 T00790032  RH  072%=      5-min Rain = 0
KMC4 150359Z 14014KT 08/03 A3021 RMK A01 T00790032  RH  072%=      5-min Rain = 0
KMC4 150400Z 14011KT 08/03 A3021 RMK A01 T00800032  RH  071%=      5-min Rain = 0
KMC4 150401Z 14010KT 08/03 A3021 RMK A01 T00810031  RH  071%=      5-min Rain = 0
KMC4 150402Z 14009KT 08/03 A3021 RMK A01 T00800031  RH  071%=      5-min Rain = 0
KMC4 150403Z 14010KT 08/03 A3021 RMK A01 T00800031  RH  072%=      5-min Rain = 0
KMC4 150404Z 13011KT 08/03 A3021 RMK A01 T00790031  RH  072%=      5-min Rain = 0
KMC4 150405Z 14011KT 08/03 A302 RMK A01 T00790031  RH  071%=      5-min Rain = 0
KMC4 150406Z 14011KT 08/03 A302 RMK A01 T00800031  RH  071%=      5-min Rain = 0
KMC4 150407Z 14010KT 08/03 A302 RMK A01 T00800031  RH  071%=      5-min Rain = 0
KMC4 150408Z 13008KT 08/03 A302 RMK A01 T00800031  RH  071%=      5-min Rain = 0
KMC4 150409Z 13008KT 08/03 A302 RMK A01 T00800031  RH  071%=      5-min Rain = 0
KMC4 150410Z 14008KT 08/03 A302 RMK A01 T00790031  RH  071%=      5-min Rain = 0
KMC4 150411Z 13009KT 08/03 A302 RMK A01 T00780031  RH  072%=      5-min Rain = 0
KMC4 150412Z 13009KT 08/03 A302 RMK A01 T00790031  RH  072%=      5-min Rain = 0
KMC4 150413Z 13010KT 08/03 A302 RMK A01 T00790031  RH  071%=      5-min Rain = 0
KMC4 150414Z 14012KT 08/03 A302 RMK A01 T00800030  RH  071%=      5-min Rain = 0
KMC4 150415Z 13009KT 08/03 A302 RMK A01 T00800030  RH  071%=      5-min Rain = 0
KMC4 150416Z 14013G18KT 08/03 A302 RMK A01 T00800030  RH  071%=      5-min Rain = 0
KMC4 150417Z 14013KT 08/03 A302 RMK A01 T00810030  RH  070%=      5-min Rain = 0
KMC4 150418Z 13010KT 08/03 A302 RMK A01 T00810030  RH  070%=      5-min Rain = 0
KMC4 150419Z 14010KT 08/03 A302 RMK A01 T00810030  RH  070%=      5-min Rain = 0
KMC4 150420Z 14013KT 08/03 A302 RMK A01 T00810030  RH  070%=      5-min Rain = 0
KMC4 150421Z 13012KT 08/03 A302 RMK A01 T00810030  RH  070%=      5-min Rain = 0
KMC4 150422Z 14015KT 08/03 A302 RMK A01 T00810030  RH  070%=      5-min Rain = 0
KMC4 150423Z 14014KT 08/03 A302 RMK A01 T00820029  RH  070%=      5-min Rain = 0
KMC4 150424Z 14011KT 08/03 A302 RMK A01 T00820030  RH  069%=      5-min Rain = 0
KMC4 150425Z 13011KT 08/03 A302 RMK A01 T00820030  RH  070%=      5-min Rain = 0
KMC4 150426Z 13011KT 08/03 A302 RMK A01 T00810029  RH  070%=      5-min Rain = 0
KMC4 150427Z 13011G16KT 08/03 A302 RMK A01 T00810029  RH  070%=      5-min Rain = 0
KMC4 150428Z 13011KT 08/03 A302 RMK A01 T00810029  RH  070%=      5-min Rain = 0
KMC4 150429Z 14011KT 08/03 A302 RMK A01 T00810029  RH  070%=      5-min Rain = 0
KMC4 150430Z 13010G15KT 08/03 A302 RMK A01 T00810029  RH  070%=      5-min Rain = 0
KMC4 150431Z 13012KT 08/03 A302 RMK A01 T00800029  RH  070%=      5-min Rain = 0
KMC4 150432Z 13013G18KT 08/03 A302 RMK A01 T00800029  RH  070%=      5-min Rain = 0
KMC4 150433Z 13013KT 08/03 A302 RMK A01 T00810029  RH  070%=      5-min Rain = 0
KMC4 150434Z 13012KT 08/03 A302 RMK A01 T00810029  RH  070%=      5-min Rain = 0
KMC4 150435Z 13011KT 08/03 A302 RMK A01 T00800029  RH  070%=      5-min Rain = 0
KMC4 150436Z 13012KT 08/03 A302 RMK A01 T00790029  RH  070%=      5-min Rain = 0
KMC4 150437Z 13014KT 08/03 A302 RMK A01 T00800029  RH  071%=      5-min Rain = 0
KMC4 150438Z 14015KT 08/03 A302 RMK A01 T00800029  RH  071%=      5-min Rain = 0
KMC4 150439Z 13013KT 08/03 A302 RMK A01 T00790029  RH  070%=      5-min Rain = 0
KMC4 150440Z 13012KT 08/03 A302 RMK A01 T00800029  RH  070%=      5-min Rain = 0
KMC4 150441Z 13012KT 08/03 A3019 RMK A01 T00790029  RH  070%=      5-min Rain = 0
KMC4 150442Z 13014KT 08/03 A3019 RMK A01 T00800029  RH  070%=      5-min Rain = 0
KMC4 150443Z 14013KT 08/03 A3019 RMK A01 T00800029  RH  070%=      5-min Rain = 0
KMC4 150444Z 13011KT 08/03 A3019 RMK A01 T00800029  RH  070%=      5-min Rain = 0
KMC4 150445Z 13011KT 08/03 A3019 RMK A01 T00790029  RH  070%=      5-min Rain = 0
KMC4 150446Z 13012KT 08/03 A3019 RMK A01 T00790029  RH  071%=      5-min Rain = 0
KMC4 150447Z 13010KT 08/03 A3019 RMK A01 T00780029  RH  071%=      5-min Rain = 0
KMC4 150448Z 13011KT 08/03 A3019 RMK A01 T00780029  RH  071%=      5-min Rain = 0
KMC4 150449Z 12010KT 08/03 A3019 RMK A01 T00770029  RH  071%=      5-min Rain = 0
KMC4 150450Z 13013KT 08/03 A3019 RMK A01 T00770029  RH  072%=      5-min Rain = 0
KMC4 150451Z 13012KT 08/03 A3019 RMK A01 T00770029  RH  071%=      5-min Rain = 0
KMC4 150452Z 13012G17KT 08/03 A3019 RMK A01 T00780029  RH  071%=      5-min Rain = 0
KMC4 150453Z 13012KT 08/03 A3019 RMK A01 T00770029  RH  071%=      5-min Rain = 0
KMC4 150454Z 13013KT 08/03 A3019 RMK A01 T00770029  RH  071%=      5-min Rain = 0
KMC4 150455Z 13012KT 08/03 A3019 RMK A01 T00770029  RH  071%=      5-min Rain = 0
KMC4 150456Z 14014KT 08/03 A3018 RMK A01 T00770029  RH  071%=      5-min Rain = 0
KMC4 150457Z 13013KT 08/03 A3018 RMK A01 T00770029  RH  072%=      5-min Rain = 0
KMC4 150458Z 13013KT 08/03 A3018 RMK A01 T00770029  RH  072%=      5-min Rain = 0
KMC4 150459Z 13014KT 08/03 A3018 RMK A01 T00770029  RH  072%=      5-min Rain = 0
KMC4 150500Z 13011KT 08/03 A3018 RMK A01 T00770029  RH  071%=      5-min Rain = 0
KMC4 150501Z 13012KT 08/03 A3018 RMK A01 T00770029  RH  071%=      5-min Rain = 0
KMC4 150502Z 14013KT 08/03 A3018 RMK A01 T00760028  RH  072%=      5-min Rain = 0
KMC4 150503Z 14013KT 08/03 A3018 RMK A01 T00770029  RH  072%=      5-min Rain = 0
KMC4 150504Z 14013KT 08/03 A3018 RMK A01 T00770028  RH  071%=      5-min Rain = 0
KMC4 150505Z 13014KT 08/03 A3017 RMK A01 T00770029  RH  071%=      5-min Rain = 0
KMC4 150506Z 13013KT 08/03 A3017 RMK A01 T00780029  RH  071%=      5-min Rain = 0
KMC4 150507Z 14014KT 08/03 A3017 RMK A01 T00770029  RH  071%=      5-min Rain = 0
KMC4 150508Z 13017KT 08/03 A3017 RMK A01 T00770029  RH  071%=      5-min Rain = 0
KMC4 150509Z 14015G20KT 08/03 A3017 RMK A01 T00780029  RH  071%=      5-min Rain = 0
KMC4 150510Z 14012KT 08/03 A3017 RMK A01 T00780029  RH  071%=      5-min Rain = 0
KMC4 150511Z 14015G20KT 08/03 A3017 RMK A01 T00780029  RH  071%=      5-min Rain = 0
KMC4 150512Z 14015KT 08/03 A3017 RMK A01 T00770029  RH  071%=      5-min Rain = 0
KMC4 150513Z 14014KT 08/03 A3017 RMK A01 T00770029  RH  071%=      5-min Rain = 0
KMC4 150514Z 14014KT 08/03 A3017 RMK A01 T00770029  RH  071%=      5-min Rain = 0
KMC4 150515Z 14011G16KT 08/03 A3017 RMK A01 T00770029  RH  072%=      5-min Rain = 0
KMC4 150516Z 14016KT 08/03 A3017 RMK A01 T00770029  RH  072%=      5-min Rain = 0
KMC4 150517Z 14013KT 08/03 A3017 RMK A01 T00770029  RH  072%=      5-min Rain = 0
KMC4 150518Z 14012KT 08/03 A3017 RMK A01 T00770029  RH  072%=      5-min Rain = 0
KMC4 150519Z 14013G18KT 08/03 A3017 RMK A01 T00770029  RH  072%=      5-min Rain = 0
KMC4 150520Z 14013KT 08/03 A3017 RMK A01 T00770029  RH  072%=      5-min Rain = 0
KMC4 150521Z 14017KT 08/03 A3017 RMK A01 T00770029  RH  072%=      5-min Rain = 0
KMC4 150522Z 14015KT 08/03 A3017 RMK A01 T00770029  RH  072%=      5-min Rain = 0
KMC4 150523Z 14015KT 08/03 A3017 RMK A01 T00780030  RH  072%=      5-min Rain = 0
KMC4 150524Z 14014KT 08/03 A3017 RMK A01 T00780030  RH  071%=      5-min Rain = 0
KMC4 150525Z 15013KT 08/03 A3017 RMK A01 T00790030  RH  071%=      5-min Rain = 0
KMC4 150526Z 14016KT 08/03 A3017 RMK A01 T00780030  RH  071%=      5-min Rain = 0
KMC4 150527Z 14015KT 08/03 A3017 RMK A01 T00780029  RH  071%=      5-min Rain = 0
KMC4 150528Z 14015G20KT 08/03 A3017 RMK A01 T00790030  RH  071%=      5-min Rain = 0
KMC4 150529Z 14013KT 08/03 A3017 RMK A01 T00790030  RH  071%=      5-min Rain = 0
KMC4 150530Z 14012KT 08/03 A3017 RMK A01 T00780030  RH  071%=      5-min Rain = 0
KMC4 150531Z 14013KT 08/03 A3017 RMK A01 T00780030  RH  071%=      5-min Rain = 0
KMC4 150532Z 14011G17KT 08/03 A3017 RMK A01 T00780030  RH  071%=      5-min Rain = 0
KMC4 150533Z 14012KT 08/03 A3017 RMK A01 T00780030  RH  072%=      5-min Rain = 0
KMC4 150534Z 14013KT 08/03 A3017 RMK A01 T00780030  RH  072%=      5-min Rain = 0
KMC4 150535Z 14011G16KT 08/03 A3017 RMK A01 T00780030  RH  072%=      5-min Rain = 0
KMC4 150536Z 13014KT 08/03 A3017 RMK A01 T00770030  RH  072%=      5-min Rain = 0
KMC4 150537Z 14013KT 08/03 A3017 RMK A01 T00780030  RH  072%=      5-min Rain = 0
KMC4 150538Z 13011KT 08/03 A3017 RMK A01 T00780030  RH  072%=      5-min Rain = 0
KMC4 150539Z 13013KT 08/03 A3017 RMK A01 T00780030  RH  072%=      5-min Rain = 0
KMC4 150540Z 13012KT 08/03 A3017 RMK A01 T00780030  RH  072%=      5-min Rain = 0
KMC4 150541Z 13013KT 08/03 A3017 RMK A01 T00770030  RH  072%=      5-min Rain = 0
KMC4 150542Z 13013G19KT 08/03 A3017 RMK A01 T00770030  RH  072%=      5-min Rain = 0
KMC4 150543Z 13012G17KT 08/03 A3017 RMK A01 T00770030  RH  072%=      5-min Rain = 0
KMC4 150544Z 12011KT 08/03 A3017 RMK A01 T00770030  RH  072%=      5-min Rain = 0
KMC4 150545Z 13010KT 08/03 A3017 RMK A01 T00770030  RH  072%=      5-min Rain = 0
KMC4 150546Z 13012KT 08/03 A3017 RMK A01 T00760030  RH  073%=      5-min Rain = 0
KMC4 150547Z 13012KT 08/03 A3017 RMK A01 T00750030  RH  073%=      5-min Rain = 0
KMC4 150548Z 13010KT 08/03 A3016 RMK A01 T00760030  RH  073%=      5-min Rain = 0
KMC4 150549Z 12010KT 08/03 A3016 RMK A01 T00750030  RH  073%=      5-min Rain = 0
KMC4 150550Z 13012KT 08/03 A3016 RMK A01 T00750030  RH  073%=      5-min Rain = 0
KMC4 150551Z 13012KT 08/03 A3016 RMK A01 T00760030  RH  073%=      5-min Rain = 0
KMC4 150552Z 13011KT 08/03 A3016 RMK A01 T00760030  RH  073%=      5-min Rain = 0
KMC4 150553Z 13013KT 08/03 A3016 RMK A01 T00760030  RH  073%=      5-min Rain = 0
KMC4 150554Z 13012KT 08/03 A3016 RMK A01 T00760031  RH  073%=      5-min Rain = 0
KMC4 150555Z 12010KT 08/03 A3016 RMK A01 T00760030  RH  073%=      5-min Rain = 0
KMC4 150556Z 13011KT 08/03 A3016 RMK A01 T00760030  RH  073%=      5-min Rain = 0
KMC4 150557Z 13011KT 08/03 A3016 RMK A01 T00760030  RH  073%=      5-min Rain = 0
KMC4 150558Z 13014G19KT 08/03 A3016 RMK A01 T00760030  RH  073%=      5-min Rain = 0
KMC4 150559Z 13012KT 08/03 A3016 RMK A01 T00760031  RH  073%=      5-min Rain = 0

Page generated in 0.1751 seconds.